LAN24Q KSFO-LEBL

Flight info

Callsign LAN24Q
Flight time N/A
Altitude 33000
Route SNTNA2 DEDHD DCT LKV DCT MLP DCT ITREK DCT 55N097W 58N090W/N0490F350 60N082W 65N067W/M084F350 DCT EPMAN DCT 66N050W 65N040W 62N030W/M084F370 58N020W DCT VENER/N0480F370 DCT KOKIB DCT BUNON DCT LEDGO DCT DOLUR DCT TERKU DCT KORER UM616 LUGEN/N0467F250 UM616 TUPAR DCT CNA DCT SECHE DCT AGN DCT TOU DCT LOMRA DCT ROCAN DCT PUMAL
Aircraft B77W/H-SDE1E2E3FGHIJ2J3J4J5M1RWXY/LB1D1

Departure

Time N/A
Airport San Francisco International Airport (KSFO)

Arrival

Time 2026-05-06 13:12
Airport Josep Tarradellas Barcelona-El Prat Airport (LEBL)
Time Latitude Longitude Altitude Speed Heading
2026-05-06 03:51 49.17182 -111.14059 33256 ft 437 kts 52°
2026-05-06 03:51 49.18566 -111.10085 33243 ft 437 kts 52°
2026-05-06 03:51 49.21419 -111.01883 33244 ft 435 kts 52°
2026-05-06 03:52 49.24220 -110.93807 33245 ft 434 kts 52°
2026-05-06 03:52 49.27035 -110.85665 33302 ft 434 kts 52°
2026-05-06 03:53 49.29863 -110.77459 33259 ft 435 kts 52°
2026-05-06 03:53 49.32668 -110.69290 33246 ft 435 kts 52°
2026-05-06 03:54 49.35486 -110.61059 33252 ft 435 kts 52°
2026-05-06 03:54 49.38300 -110.52811 33251 ft 435 kts 52°
2026-05-06 03:55 49.41088 -110.44616 33281 ft 437 kts 52°
2026-05-06 03:55 49.43900 -110.36326 33252 ft 438 kts 52°
2026-05-06 03:56 49.46714 -110.27998 33246 ft 439 kts 52°
2026-05-06 03:56 49.49513 -110.19685 33247 ft 439 kts 52°
2026-05-06 03:57 49.52326 -110.11306 33243 ft 439 kts 52°
2026-05-06 03:57 49.55115 -110.02974 33242 ft 441 kts 53°
2026-05-06 03:58 49.57893 -109.94641 33241 ft 442 kts 53°
2026-05-06 03:58 49.60702 -109.86191 33238 ft 442 kts 53°
2026-05-06 03:59 49.63485 -109.77786 33211 ft 442 kts 53°
2026-05-06 03:59 49.66282 -109.69315 33271 ft 442 kts 53°
2026-05-06 04:00 49.69056 -109.60889 33221 ft 442 kts 53°
2026-05-06 04:00 49.71838 -109.52405 33222 ft 443 kts 53°
2026-05-06 04:01 49.74622 -109.43890 33227 ft 442 kts 53°
2026-05-06 04:01 49.77376 -109.35434 33223 ft 442 kts 53°
2026-05-06 04:02 49.80148 -109.26900 33235 ft 444 kts 54°
2026-05-06 04:02 49.82917 -109.18344 33221 ft 444 kts 54°
2026-05-06 04:03 49.85671 -109.09802 33229 ft 445 kts 54°
2026-05-06 04:03 49.88432 -109.01209 33231 ft 445 kts 54°
2026-05-06 04:04 49.91158 -108.92696 33268 ft 446 kts 54°
2026-05-06 04:04 49.93906 -108.84092 33234 ft 448 kts 54°
2026-05-06 04:05 49.96677 -108.75380 33222 ft 450 kts 54°
2026-05-06 04:05 49.99445 -108.66646 33227 ft 450 kts 54°
2026-05-06 04:06 50.02196 -108.57934 33222 ft 451 kts 55°
2026-05-06 04:06 50.04969 -108.49126 33222 ft 454 kts 56°
2026-05-06 04:07 50.07735 -108.40309 33224 ft 457 kts 56°
2026-05-06 04:07 50.10526 -108.31375 33221 ft 459 kts 56°
2026-05-06 04:08 50.13312 -108.22418 33202 ft 458 kts 55°
2026-05-06 04:08 50.16049 -108.13576 33205 ft 452 kts 55°
2026-05-06 04:09 50.18781 -108.04745 33216 ft 451 kts 55°
2026-05-06 04:09 50.21481 -107.95987 33213 ft 452 kts 56°
2026-05-06 04:10 50.24202 -107.87122 33215 ft 452 kts 56°
2026-05-06 04:10 50.26904 -107.78286 33130 ft 453 kts 56°
2026-05-06 04:11 50.29655 -107.69386 33126 ft 453 kts 53°
2026-05-06 04:11 50.33467 -107.61758 33137 ft 441 kts 41°
2026-05-06 04:12 50.37546 -107.54521 33142 ft 447 kts 43°
2026-05-06 04:12 50.41550 -107.47058 33162 ft 450 kts 44°
2026-05-06 04:13 50.45566 -107.39482 33178 ft 452 kts 44°
2026-05-06 04:13 50.48928 -107.33131 33199 ft 455 kts 44°
2026-05-06 04:14 50.53644 -107.24220 33211 ft 454 kts 44°
2026-05-06 04:14 50.57654 -107.16620 33206 ft 449 kts 44°
2026-05-06 04:15 50.60975 -107.10317 33214 ft 449 kts 44°
2026-05-06 04:15 50.65608 -107.01504 33259 ft 449 kts 44°
2026-05-06 04:16 50.68917 -106.95194 33231 ft 458 kts 45°
2026-05-06 04:16 50.73020 -106.87347 33229 ft 465 kts 45°
2026-05-06 04:17 50.77117 -106.79474 33227 ft 467 kts 45°
2026-05-06 04:17 50.81247 -106.71511 33220 ft 467 kts 45°
2026-05-06 04:18 50.85362 -106.63555 33235 ft 466 kts 45°
2026-05-06 04:18 50.89437 -106.55656 33222 ft 465 kts 45°
2026-05-06 04:19 50.93545 -106.47669 33222 ft 465 kts 45°
2026-05-06 04:19 50.97609 -106.39744 33218 ft 465 kts 45°
2026-05-06 04:20 51.01706 -106.31731 33218 ft 465 kts 46°
2026-05-06 04:20 51.05768 -106.23763 33213 ft 467 kts 46°
2026-05-06 04:21 51.09863 -106.15704 33216 ft 469 kts 46°
2026-05-06 04:21 51.13959 -106.07616 33219 ft 472 kts 46°
2026-05-06 04:22 51.18022 -105.99567 33215 ft 473 kts 46°
2026-05-06 04:23 51.24142 -105.87389 33232 ft 469 kts 47°
2026-05-06 04:23 51.28253 -105.79189 33219 ft 476 kts 47°
2026-05-06 04:24 51.32413 -105.70864 33218 ft 480 kts 47°
2026-05-06 04:24 51.36571 -105.62509 33211 ft 483 kts 47°
2026-05-06 04:25 51.40751 -105.54076 33205 ft 483 kts 47°
2026-05-06 04:25 51.44927 -105.45626 33206 ft 482 kts 47°
2026-05-06 04:26 51.49063 -105.37235 33204 ft 482 kts 47°
2026-05-06 04:26 51.53221 -105.28768 33201 ft 481 kts 47°
2026-05-06 04:27 51.57360 -105.20314 33201 ft 480 kts 47°
2026-05-06 04:27 51.61455 -105.11923 33234 ft 479 kts 48°
2026-05-06 04:28 51.65555 -105.03496 33211 ft 480 kts 48°
2026-05-06 04:28 51.69629 -104.95095 33208 ft 482 kts 48°
2026-05-06 04:29 51.73759 -104.86548 33201 ft 483 kts 48°
2026-05-06 04:29 51.77892 -104.77965 33202 ft 484 kts 48°
2026-05-06 04:30 51.82000 -104.69407 33220 ft 484 kts 48°
2026-05-06 04:30 51.86116 -104.60804 33199 ft 482 kts 48°
2026-05-06 04:31 51.90209 -104.52215 33201 ft 480 kts 48°
2026-05-06 04:31 51.94284 -104.43639 33204 ft 478 kts 48°
2026-05-06 04:32 51.98321 -104.35118 33204 ft 477 kts 48°
2026-05-06 04:32 52.02361 -104.26561 33201 ft 477 kts 48°
2026-05-06 04:33 52.06375 -104.18029 33200 ft 477 kts 48°
2026-05-06 04:33 52.10411 -104.09422 33197 ft 478 kts 49°
2026-05-06 04:34 52.14448 -104.00785 33191 ft 479 kts 49°
2026-05-06 04:34 52.18430 -103.92236 33186 ft 479 kts 49°
2026-05-06 04:35 52.22442 -103.83593 33194 ft 480 kts 49°
2026-05-06 04:35 52.26480 -103.74866 33179 ft 481 kts 49°
2026-05-06 04:36 52.30491 -103.66165 33179 ft 482 kts 49°
2026-05-06 04:36 52.34526 -103.57384 33181 ft 482 kts 49°
2026-05-06 04:37 52.38558 -103.48577 33203 ft 483 kts 49°
2026-05-06 04:37 52.42565 -103.39796 33182 ft 484 kts 49°
2026-05-06 04:38 52.46608 -103.30906 33180 ft 485 kts 50°
2026-05-06 04:38 52.50624 -103.22045 33168 ft 485 kts 50°
2026-05-06 04:39 52.54648 -103.13134 33166 ft 485 kts 50°
2026-05-06 04:39 52.58643 -103.04254 33176 ft 485 kts 50°
2026-05-06 04:40 52.62616 -102.95395 33170 ft 486 kts 50°
2026-05-06 04:40 52.66603 -102.86474 33161 ft 486 kts 50°
2026-05-06 04:41 52.70606 -102.77485 33167 ft 486 kts 50°
2026-05-06 04:41 52.74607 -102.68470 33163 ft 486 kts 50°
2026-05-06 04:42 52.78604 -102.59429 33174 ft 487 kts 50°
2026-05-06 04:42 52.82585 -102.50395 33156 ft 488 kts 51°
2026-05-06 04:43 52.86583 -102.41289 33172 ft 488 kts 51°
2026-05-06 04:43 52.90548 -102.32225 33171 ft 488 kts 51°
2026-05-06 04:44 52.94535 -102.23079 33198 ft 488 kts 51°
2026-05-06 04:44 52.98519 -102.13905 33167 ft 488 kts 51°
2026-05-06 04:45 53.02454 -102.04814 33157 ft 489 kts 51°
2026-05-06 04:45 53.06374 -101.95722 33158 ft 489 kts 51°
2026-05-06 04:46 53.10308 -101.86567 33159 ft 489 kts 51°
2026-05-06 04:46 53.14260 -101.77335 33177 ft 489 kts 51°
2026-05-06 04:47 53.18206 -101.68084 33160 ft 489 kts 51°
2026-05-06 04:47 53.22151 -101.58802 33160 ft 489 kts 51°
2026-05-06 04:48 53.26058 -101.49575 33158 ft 489 kts 52°
2026-05-06 04:48 53.29981 -101.40277 33158 ft 489 kts 52°
2026-05-06 04:49 53.33902 -101.30949 33161 ft 490 kts 52°
2026-05-06 04:49 53.37816 -101.21604 33159 ft 490 kts 52°
2026-05-06 04:50 53.41712 -101.12266 33155 ft 490 kts 52°
2026-05-06 04:50 53.45619 -101.02866 33155 ft 491 kts 52°
2026-05-06 04:51 53.49474 -100.93558 33157 ft 491 kts 52°
2026-05-06 04:51 53.53348 -100.84172 33163 ft 491 kts 52°
2026-05-06 04:52 53.57241 -100.74700 33158 ft 491 kts 52°
2026-05-06 04:52 53.61120 -100.65228 33158 ft 491 kts 52°
2026-05-06 04:53 53.64974 -100.55783 33150 ft 491 kts 52°
2026-05-06 04:53 53.68827 -100.46304 33148 ft 491 kts 53°
2026-05-06 04:54 53.72691 -100.36761 33154 ft 492 kts 53°
2026-05-06 04:54 53.76559 -100.27174 33145 ft 492 kts 53°
2026-05-06 04:55 53.80386 -100.17649 33147 ft 492 kts 53°
2026-05-06 04:55 53.84227 -100.08054 33144 ft 492 kts 53°
2026-05-06 04:56 53.88025 -99.98531 33146 ft 492 kts 53°
2026-05-06 04:56 53.91832 -99.88948 33146 ft 492 kts 53°
2026-05-06 04:57 53.95657 -99.79283 33145 ft 492 kts 53°
2026-05-06 04:57 53.99445 -99.69676 33148 ft 492 kts 53°
2026-05-06 04:58 54.03248 -99.59993 33151 ft 492 kts 53°
2026-05-06 04:58 54.07047 -99.50283 33163 ft 492 kts 53°
2026-05-06 04:59 54.10819 -99.40602 33153 ft 492 kts 54°
2026-05-06 04:59 54.14601 -99.30859 33141 ft 492 kts 54°
2026-05-06 05:00 54.18387 -99.21069 33146 ft 492 kts 54°
2026-05-06 05:00 54.22128 -99.11354 33145 ft 492 kts 54°
2026-05-06 05:01 54.25888 -99.01555 33165 ft 492 kts 54°
2026-05-06 05:01 54.29599 -98.91842 33150 ft 493 kts 54°
2026-05-06 05:02 54.33332 -98.82036 33147 ft 492 kts 54°
2026-05-06 05:02 54.37068 -98.72181 33132 ft 492 kts 54°
2026-05-06 05:03 54.40172 -98.63966 33153 ft 492 kts 54°
2026-05-06 05:03 54.43896 -98.54071 33146 ft 493 kts 54°
2026-05-06 05:04 54.47591 -98.44214 33142 ft 493 kts 54°
2026-05-06 05:04 54.51307 -98.34264 33144 ft 493 kts 55°
2026-05-06 05:05 54.55017 -98.24287 33141 ft 494 kts 55°
2026-05-06 05:05 54.58695 -98.14357 33142 ft 494 kts 55°
2026-05-06 05:06 54.62395 -98.04331 33151 ft 494 kts 55°
2026-05-06 05:06 54.66008 -97.94496 33140 ft 494 kts 55°
2026-05-06 05:07 54.69670 -97.84489 33139 ft 495 kts 55°
2026-05-06 05:07 54.73340 -97.74418 33137 ft 495 kts 56°
2026-05-06 05:08 54.77010 -97.64307 33141 ft 495 kts 56°
2026-05-06 05:08 54.80647 -97.54248 33138 ft 495 kts 56°
2026-05-06 05:09 54.84313 -97.44063 33131 ft 496 kts 56°
2026-05-06 05:09 54.87939 -97.33950 33131 ft 496 kts 56°
2026-05-06 05:10 54.91579 -97.23753 33134 ft 497 kts 56°
2026-05-06 05:10 54.95219 -97.13515 33125 ft 497 kts 56°
2026-05-06 05:11 54.98848 -97.03272 33135 ft 497 kts 57°
2026-05-06 05:11 55.02804 -96.93627 33130 ft 495 kts 48°
2026-05-06 05:12 55.07338 -96.84687 33130 ft 495 kts 46°
2026-05-06 05:12 55.11917 -96.75654 33119 ft 496 kts 47°
2026-05-06 05:13 55.16435 -96.66502 33121 ft 496 kts 48°
2026-05-06 05:13 55.20882 -96.57351 33127 ft 496 kts 48°
2026-05-06 05:14 55.25352 -96.48097 33115 ft 497 kts 48°
2026-05-06 05:14 55.29819 -96.38823 33113 ft 497 kts 49°
2026-05-06 05:15 55.34254 -96.29588 33115 ft 497 kts 49°
2026-05-06 05:15 55.38720 -96.20257 33107 ft 497 kts 49°
2026-05-06 05:16 55.43168 -96.10926 33120 ft 498 kts 49°
2026-05-06 05:16 55.47593 -96.01608 33113 ft 498 kts 49°
2026-05-06 05:17 55.51973 -95.92347 33109 ft 498 kts 49°
2026-05-06 05:17 55.56410 -95.82931 33106 ft 498 kts 49°
2026-05-06 05:18 55.60806 -95.73566 33103 ft 498 kts 49°
2026-05-06 05:18 55.65226 -95.64114 33104 ft 497 kts 49°
2026-05-06 05:19 55.69632 -95.54653 33105 ft 497 kts 49°
2026-05-06 05:19 55.74015 -95.45206 33097 ft 497 kts 49°
2026-05-06 05:20 55.78397 -95.35724 33099 ft 497 kts 50°
2026-05-06 05:20 55.82784 -95.26193 33098 ft 496 kts 50°
2026-05-06 05:21 55.87138 -95.16698 33088 ft 496 kts 50°
2026-05-06 05:21 55.91501 -95.07145 33092 ft 496 kts 50°
2026-05-06 05:22 55.95809 -94.97675 33090 ft 496 kts 50°
2026-05-06 05:22 56.00148 -94.88101 33088 ft 497 kts 50°
2026-05-06 05:23 56.04467 -94.78531 33088 ft 497 kts 50°
2026-05-06 05:23 56.10974 -94.64043 33081 ft 497 kts 50°
2026-05-06 05:24 56.15280 -94.54408 33086 ft 497 kts 50°
2026-05-06 05:24 56.19606 -94.44690 33080 ft 496 kts 50°
2026-05-06 05:25 56.23888 -94.35030 33065 ft 496 kts 50°
2026-05-06 05:25 56.28190 -94.25286 33064 ft 496 kts 50°
2026-05-06 05:26 56.32442 -94.15619 33076 ft 496 kts 51°
2026-05-06 05:26 56.36724 -94.05843 33070 ft 496 kts 51°
2026-05-06 05:27 56.40937 -93.96185 33053 ft 496 kts 51°
2026-05-06 05:27 56.45185 -93.86411 33045 ft 496 kts 51°
2026-05-06 05:28 56.49450 -93.76556 33052 ft 496 kts 51°
2026-05-06 05:28 56.53700 -93.66692 33040 ft 496 kts 51°
2026-05-06 05:29 56.57935 -93.56825 33041 ft 495 kts 51°
2026-05-06 05:29 56.62139 -93.46995 33040 ft 495 kts 51°
2026-05-06 05:30 56.66360 -93.37079 33032 ft 496 kts 52°
2026-05-06 05:30 56.70585 -93.27116 33036 ft 496 kts 52°
2026-05-06 05:31 56.74776 -93.17191 33024 ft 497 kts 51°
2026-05-06 05:31 56.78982 -93.07188 33020 ft 496 kts 52°
2026-05-06 05:32 56.83137 -92.97265 33013 ft 496 kts 52°
2026-05-06 05:32 56.87297 -92.87293 33012 ft 497 kts 52°
2026-05-06 05:33 56.91487 -92.77205 33003 ft 498 kts 52°
2026-05-06 05:33 56.95683 -92.67056 33003 ft 500 kts 52°
2026-05-06 05:34 56.99858 -92.56923 32987 ft 500 kts 52°
2026-05-06 05:34 57.04055 -92.46689 32988 ft 500 kts 53°
2026-05-06 05:35 57.08206 -92.36523 32989 ft 499 kts 53°
2026-05-06 05:35 57.12378 -92.26268 32975 ft 500 kts 53°
2026-05-06 05:36 57.16418 -92.16291 32974 ft 501 kts 53°
2026-05-06 05:36 57.20579 -92.05970 32963 ft 502 kts 53°
2026-05-06 05:37 57.24666 -91.95790 32968 ft 502 kts 53°
2026-05-06 05:37 57.28834 -91.85367 32955 ft 502 kts 54°
2026-05-06 05:38 57.32952 -91.75024 32962 ft 502 kts 54°
2026-05-06 05:38 57.37086 -91.64594 32932 ft 501 kts 54°
2026-05-06 05:39 57.41185 -91.54208 32937 ft 500 kts 54°
2026-05-06 05:39 57.45292 -91.43761 32945 ft 500 kts 54°
2026-05-06 05:40 57.49393 -91.33279 32933 ft 501 kts 55°
2026-05-06 05:40 57.53492 -91.22756 32930 ft 502 kts 54°
2026-05-06 05:41 57.57554 -91.12282 32924 ft 500 kts 56°
2026-05-06 05:41 57.61618 -91.01755 32920 ft 498 kts 55°
2026-05-06 05:42 57.65585 -90.91438 32902 ft 496 kts 55°
2026-05-06 05:42 57.69607 -90.80932 32907 ft 496 kts 56°
2026-05-06 05:43 57.73616 -90.70410 32909 ft 496 kts 56°
2026-05-06 05:43 57.77599 -90.59917 32901 ft 497 kts 56°
2026-05-06 05:44 57.81596 -90.49336 32902 ft 495 kts 56°
2026-05-06 05:44 57.85550 -90.38821 32894 ft 494 kts 56°
2026-05-06 05:45 57.89504 -90.28260 32892 ft 495 kts 56°
2026-05-06 05:45 57.93468 -90.17630 32878 ft 495 kts 56°
2026-05-06 05:46 57.97414 -90.07000 32883 ft 495 kts 57°
2026-05-06 05:46 58.01208 -89.96475 32869 ft 493 kts 60°
2026-05-06 05:47 58.04580 -89.85198 32877 ft 492 kts 63°
2026-05-06 05:47 58.07825 -89.73763 32872 ft 493 kts 63°
2026-05-06 05:48 58.11082 -89.62417 32877 ft 494 kts 63°
2026-05-06 05:48 58.14397 -89.51003 32876 ft 495 kts 63°
2026-05-06 05:49 58.17701 -89.39647 32858 ft 494 kts 62°
2026-05-06 05:49 58.21004 -89.28229 32852 ft 493 kts 63°
2026-05-06 05:50 58.24292 -89.16792 32857 ft 492 kts 63°
2026-05-06 05:50 58.27553 -89.05394 32857 ft 493 kts 63°
2026-05-06 05:51 58.30784 -88.94033 32840 ft 494 kts 63°
2026-05-06 05:51 58.34029 -88.82581 32843 ft 494 kts 62°
2026-05-06 05:52 58.37282 -88.71038 32832 ft 493 kts 64°
2026-05-06 05:52 58.39966 -88.61464 32833 ft 491 kts 64°
2026-05-06 05:53 58.43696 -88.48093 32825 ft 491 kts 63°
2026-05-06 05:53 58.46375 -88.38443 32826 ft 491 kts 64°
2026-05-06 05:54 58.49558 -88.26932 32824 ft 492 kts 63°
2026-05-06 05:54 58.52754 -88.15302 32826 ft 492 kts 64°
2026-05-06 05:55 58.55914 -88.03751 32809 ft 491 kts 64°
2026-05-06 05:55 58.59037 -87.92275 32813 ft 488 kts 64°
2026-05-06 05:56 58.62149 -87.80785 32801 ft 488 kts 65°
2026-05-06 05:56 58.65277 -87.69182 32802 ft 489 kts 64°
2026-05-06 05:57 58.68399 -87.57534 32805 ft 490 kts 65°
2026-05-06 05:57 58.71492 -87.45930 32799 ft 489 kts 64°
2026-05-06 05:58 58.74577 -87.34308 32773 ft 486 kts 64°
2026-05-06 05:58 58.77622 -87.22772 32794 ft 484 kts 64°
2026-05-06 05:59 58.80669 -87.11163 32764 ft 485 kts 64°
2026-05-06 05:59 58.83671 -86.99668 32782 ft 483 kts 64°
2026-05-06 06:00 58.86675 -86.88106 32752 ft 485 kts 64°
2026-05-06 06:00 58.89707 -86.76386 32761 ft 485 kts 64°
2026-05-06 06:01 58.92701 -86.64745 32754 ft 485 kts 64°
2026-05-06 06:01 58.95692 -86.53054 32739 ft 482 kts 64°
2026-05-06 06:02 58.98660 -86.41392 32718 ft 481 kts 64°
2026-05-06 06:02 59.01583 -86.29846 32725 ft 477 kts 64°
2026-05-06 06:03 59.04503 -86.18252 32744 ft 477 kts 64°
2026-05-06 06:03 59.07422 -86.06597 32725 ft 481 kts 63°
2026-05-06 06:04 59.10305 -85.95030 32729 ft 484 kts 64°
2026-05-06 06:04 59.13236 -85.83206 32709 ft 485 kts 64°
2026-05-06 06:05 59.16135 -85.71448 32716 ft 481 kts 64°
2026-05-06 06:05 59.19009 -85.59726 32690 ft 477 kts 64°
2026-05-06 06:06 59.21857 -85.48051 32712 ft 476 kts 63°
2026-05-06 06:06 59.24699 -85.36344 32687 ft 481 kts 64°
2026-05-06 06:07 59.27564 -85.24470 32685 ft 482 kts 63°
2026-05-06 06:07 59.30411 -85.12606 32693 ft 484 kts 64°
2026-05-06 06:08 59.33269 -85.00635 32667 ft 483 kts 64°
2026-05-06 06:08 59.36049 -84.88922 32666 ft 479 kts 64°
2026-05-06 06:09 59.38854 -84.77044 32661 ft 478 kts 63°
2026-05-06 06:09 59.41627 -84.65233 32667 ft 480 kts 64°
2026-05-06 06:10 59.44430 -84.53229 32649 ft 485 kts 64°
2026-05-06 06:10 59.47227 -84.41186 32643 ft 487 kts 64°
2026-05-06 06:11 59.50009 -84.29140 32636 ft 478 kts 64°
2026-05-06 06:11 59.52741 -84.17238 32621 ft 475 kts 64°
2026-05-06 06:12 59.55449 -84.05376 32645 ft 480 kts 64°
2026-05-06 06:12 59.58173 -83.93388 32616 ft 485 kts 64°
2026-05-06 06:13 59.60926 -83.81199 32620 ft 488 kts 64°
2026-05-06 06:13 59.63675 -83.68950 32602 ft 484 kts 65°
2026-05-06 06:14 59.66377 -83.56836 32592 ft 483 kts 64°
2026-05-06 06:14 59.69070 -83.44694 32604 ft 481 kts 65°
2026-05-06 06:15 59.71767 -83.32473 32583 ft 486 kts 65°
2026-05-06 06:15 59.74451 -83.20235 32591 ft 486 kts 65°
2026-05-06 06:16 59.77151 -83.07864 32577 ft 489 kts 65°
2026-05-06 06:16 59.79803 -82.95626 32575 ft 489 kts 65°
2026-05-06 06:17 59.82480 -82.83200 32564 ft 485 kts 65°
2026-05-06 06:17 59.85106 -82.70945 32558 ft 484 kts 65°
2026-05-06 06:18 59.87738 -82.58586 32555 ft 483 kts 65°
2026-05-06 06:18 59.90359 -82.46200 32548 ft 485 kts 66°
2026-05-06 06:19 59.92954 -82.33872 32546 ft 485 kts 65°
2026-05-06 06:19 59.95561 -82.21402 32528 ft 485 kts 66°
2026-05-06 06:20 59.98138 -82.09012 32524 ft 485 kts 66°
2026-05-06 06:20 60.01042 -81.97071 32518 ft 484 kts 54°
2026-05-06 06:21 60.05702 -81.87400 32511 ft 482 kts 45°
2026-05-06 06:21 60.10289 -81.77686 32520 ft 484 kts 48°
2026-05-06 06:22 60.14761 -81.67521 32492 ft 484 kts 49°
2026-05-06 06:22 60.19198 -81.57433 32493 ft 484 kts 49°
2026-05-06 06:23 60.23682 -81.47322 32497 ft 484 kts 49°
2026-05-06 06:23 60.28182 -81.37187 32489 ft 485 kts 49°
2026-05-06 06:24 60.32659 -81.27068 32483 ft 486 kts 49°
2026-05-06 06:24 60.37165 -81.16836 32491 ft 487 kts 49°
2026-05-06 06:25 60.41644 -81.06613 32476 ft 487 kts 50°
2026-05-06 06:26 60.48343 -80.91236 32472 ft 488 kts 50°
2026-05-06 06:26 60.52797 -80.80951 32475 ft 488 kts 50°
2026-05-06 06:27 60.57285 -80.70540 32466 ft 488 kts 50°
2026-05-06 06:27 60.61732 -80.60181 32466 ft 488 kts 50°
2026-05-06 06:28 60.66197 -80.49730 32472 ft 488 kts 50°
2026-05-06 06:28 60.70626 -80.39315 32444 ft 488 kts 51°
2026-05-06 06:29 60.75075 -80.28806 32463 ft 488 kts 51°
2026-05-06 06:29 60.79520 -80.18257 32463 ft 488 kts 51°
2026-05-06 06:30 60.83956 -80.07681 32457 ft 489 kts 51°
2026-05-06 06:30 60.88298 -79.97283 32463 ft 489 kts 51°
2026-05-06 06:31 60.92717 -79.86650 32462 ft 489 kts 51°
2026-05-06 06:31 60.97126 -79.75989 32462 ft 488 kts 51°
2026-05-06 06:32 61.01493 -79.65383 32458 ft 487 kts 51°
2026-05-06 06:32 61.05876 -79.54689 32469 ft 487 kts 52°
2026-05-06 06:33 61.10251 -79.43962 32464 ft 488 kts 52°
2026-05-06 06:33 61.14602 -79.33245 32461 ft 488 kts 52°
2026-05-06 06:34 61.18965 -79.22445 32468 ft 488 kts 52°
2026-05-06 06:34 61.23327 -79.11599 32465 ft 489 kts 52°
2026-05-06 06:35 61.27660 -79.00774 32462 ft 489 kts 52°
2026-05-06 06:35 61.31948 -78.90009 32463 ft 489 kts 52°
2026-05-06 06:36 61.36277 -78.79091 32466 ft 488 kts 52°
2026-05-06 06:36 61.40604 -78.68122 32460 ft 489 kts 52°
2026-05-06 06:37 61.44900 -78.57181 32447 ft 489 kts 53°
2026-05-06 06:37 61.49211 -78.46150 32458 ft 488 kts 53°
2026-05-06 06:38 61.53511 -78.35093 32455 ft 488 kts 53°
2026-05-06 06:38 61.57757 -78.24123 32463 ft 487 kts 53°
2026-05-06 06:39 61.62033 -78.13019 32460 ft 487 kts 53°
2026-05-06 06:39 61.66289 -78.01916 32469 ft 487 kts 53°
2026-05-06 06:40 61.70453 -77.91001 32433 ft 486 kts 54°
2026-05-06 06:40 61.74674 -77.79880 32469 ft 485 kts 54°
2026-05-06 06:41 61.78896 -77.68703 32464 ft 486 kts 54°
2026-05-06 06:41 61.83085 -77.57559 32462 ft 486 kts 54°
2026-05-06 06:42 61.86582 -77.48214 32474 ft 486 kts 54°
2026-05-06 06:42 61.91469 -77.35092 32467 ft 487 kts 54°
2026-05-06 06:43 61.94981 -77.25615 32457 ft 486 kts 55°
2026-05-06 06:43 61.99132 -77.14363 32479 ft 486 kts 55°
2026-05-06 06:44 62.03294 -77.03021 32487 ft 485 kts 55°
2026-05-06 06:44 62.07375 -76.91849 32495 ft 485 kts 55°
2026-05-06 06:45 62.11518 -76.80449 32507 ft 485 kts 55°
2026-05-06 06:45 62.15656 -76.69008 32526 ft 486 kts 56°
2026-05-06 06:46 62.19766 -76.57587 32493 ft 485 kts 56°
2026-05-06 06:46 62.23885 -76.46083 32527 ft 485 kts 56°
2026-05-06 06:47 62.27988 -76.34562 32538 ft 485 kts 56°
2026-05-06 06:47 62.32051 -76.23098 32532 ft 484 kts 56°
2026-05-06 06:48 62.36136 -76.11512 32541 ft 484 kts 56°
2026-05-06 06:48 62.40183 -75.99978 32532 ft 484 kts 57°
2026-05-06 06:49 62.44202 -75.88464 32538 ft 483 kts 57°
2026-05-06 06:49 62.48217 -75.76909 32541 ft 481 kts 58°
2026-05-06 06:50 62.52231 -75.65294 32553 ft 480 kts 58°
2026-05-06 06:50 62.56217 -75.53700 32551 ft 479 kts 58°
2026-05-06 06:51 62.60166 -75.42154 32552 ft 479 kts 58°
2026-05-06 06:51 62.64130 -75.30507 32557 ft 479 kts 58°
2026-05-06 06:52 62.68088 -75.18821 32553 ft 476 kts 59°
2026-05-06 06:52 62.71972 -75.07299 32562 ft 472 kts 59°
2026-05-06 06:53 62.75781 -74.95935 32582 ft 469 kts 59°
2026-05-06 06:53 62.79619 -74.84422 32567 ft 467 kts 59°
2026-05-06 06:54 62.83432 -74.72928 32579 ft 466 kts 59°
2026-05-06 06:54 62.87213 -74.61472 32581 ft 466 kts 59°
2026-05-06 06:55 62.91007 -74.49920 32570 ft 465 kts 60°
2026-05-06 06:55 62.94775 -74.38393 32579 ft 464 kts 60°
2026-05-06 06:56 62.98499 -74.26945 32589 ft 463 kts 60°
2026-05-06 06:56 63.02235 -74.15398 32599 ft 462 kts 61°
2026-05-06 06:57 63.05963 -74.03815 32596 ft 462 kts 61°
2026-05-06 06:57 63.09613 -73.92419 32611 ft 462 kts 61°
2026-05-06 06:58 63.13318 -73.80791 32555 ft 462 kts 62°
2026-05-06 06:58 63.16989 -73.69223 32599 ft 457 kts 62°
2026-05-06 06:59 63.20624 -73.57700 32616 ft 455 kts 62°
2026-05-06 06:59 63.24236 -73.46188 32617 ft 454 kts 62°
2026-05-06 07:00 63.27811 -73.34733 32629 ft 453 kts 62°
2026-05-06 07:00 63.31403 -73.23169 32634 ft 453 kts 62°
2026-05-06 07:01 63.34965 -73.11640 32633 ft 454 kts 62°
2026-05-06 07:01 63.38537 -73.00031 32632 ft 450 kts 63°
2026-05-06 07:02 63.42024 -72.88643 32641 ft 447 kts 63°
2026-05-06 07:02 63.45496 -72.77239 32651 ft 445 kts 63°
2026-05-06 07:03 63.48973 -72.65752 32655 ft 444 kts 63°
2026-05-06 07:03 63.52412 -72.54336 32653 ft 445 kts 63°
2026-05-06 07:04 63.55867 -72.42807 32666 ft 445 kts 63°
2026-05-06 07:04 63.59331 -72.31193 32667 ft 446 kts 64°
2026-05-06 07:05 63.62762 -72.19631 32663 ft 447 kts 64°
2026-05-06 07:05 63.66214 -72.07943 32679 ft 447 kts 64°
2026-05-06 07:06 63.69607 -71.96389 32676 ft 448 kts 64°
2026-05-06 07:06 63.73014 -71.84736 32682 ft 447 kts 64°
2026-05-06 07:07 63.76423 -71.73012 32674 ft 446 kts 64°
2026-05-06 07:07 63.79821 -71.61258 32679 ft 445 kts 64°
2026-05-06 07:08 63.83201 -71.49518 32671 ft 444 kts 66°
2026-05-06 07:08 63.86562 -71.37767 32689 ft 445 kts 66°
2026-05-06 07:09 63.89902 -71.26025 32727 ft 446 kts 66°
2026-05-06 07:09 63.93265 -71.14150 32726 ft 446 kts 66°
2026-05-06 07:10 63.96627 -71.02218 32728 ft 447 kts 66°
2026-05-06 07:10 63.99908 -70.90511 32744 ft 447 kts 66°
2026-05-06 07:11 64.03252 -70.78516 32684 ft 447 kts 66°
2026-05-06 07:11 64.06556 -70.66603 32745 ft 446 kts 66°
2026-05-06 07:12 64.09875 -70.54569 32777 ft 445 kts 66°
2026-05-06 07:12 64.13147 -70.42640 32778 ft 445 kts 66°
2026-05-06 07:13 64.16439 -70.30572 32791 ft 445 kts 66°
2026-05-06 07:13 64.19719 -70.18486 32793 ft 445 kts 66°
2026-05-06 07:14 64.22966 -70.06455 32791 ft 445 kts 66°
2026-05-06 07:14 64.26168 -69.94531 32780 ft 444 kts 66°
2026-05-06 07:15 64.29408 -69.82399 32798 ft 444 kts 67°
2026-05-06 07:15 64.32619 -69.70304 32744 ft 445 kts 66°
2026-05-06 07:16 64.35851 -69.58060 32806 ft 448 kts 66°
2026-05-06 07:16 64.39103 -69.45670 32815 ft 452 kts 66°
2026-05-06 07:17 64.42344 -69.33264 32830 ft 454 kts 66°
2026-05-06 07:17 64.45618 -69.20664 32830 ft 456 kts 66°
2026-05-06 07:18 64.48869 -69.08084 32830 ft 456 kts 67°
2026-05-06 07:18 64.52085 -68.95555 32850 ft 458 kts 67°
2026-05-06 07:19 64.55326 -68.82862 32852 ft 459 kts 67°
2026-05-06 07:19 64.58572 -68.70082 32845 ft 458 kts 67°
2026-05-06 07:20 64.61816 -68.57233 32881 ft 458 kts 67°
2026-05-06 07:20 64.65011 -68.44504 32881 ft 456 kts 67°
2026-05-06 07:21 64.68205 -68.31705 32848 ft 454 kts 67°
2026-05-06 07:21 64.71352 -68.19014 32885 ft 453 kts 67°
2026-05-06 07:22 64.74513 -68.06191 32904 ft 455 kts 68°
2026-05-06 07:22 64.77628 -67.93482 32918 ft 456 kts 68°
2026-05-06 07:23 64.80781 -67.80547 32918 ft 456 kts 68°
2026-05-06 07:23 64.83911 -67.67631 32934 ft 457 kts 68°
2026-05-06 07:24 64.87047 -67.54614 32937 ft 457 kts 68°
2026-05-06 07:24 64.90181 -67.41524 32931 ft 458 kts 67°
2026-05-06 07:25 64.93293 -67.28446 32959 ft 461 kts 68°
2026-05-06 07:25 64.96435 -67.15168 32973 ft 464 kts 68°
2026-05-06 07:26 64.99562 -67.01887 32962 ft 465 kts 68°
2026-05-06 07:26 65.02183 -66.88328 32965 ft 458 kts 74°
2026-05-06 07:27 65.04476 -66.74346 32978 ft 458 kts 75°
2026-05-06 07:27 65.06789 -66.60255 32911 ft 457 kts 74°
2026-05-06 07:28 65.09135 -66.46151 32981 ft 460 kts 73°
2026-05-06 07:28 65.12679 -66.24874 32978 ft 466 kts 73°
2026-05-06 07:29 65.15062 -66.10450 32986 ft 470 kts 73°
2026-05-06 07:29 65.17392 -65.96224 32986 ft 472 kts 74°
2026-05-06 07:30 65.19337 -65.84273 32986 ft 472 kts 74°
2026-05-06 07:30 65.21684 -65.69743 32985 ft 471 kts 74°
2026-05-06 07:31 65.24021 -65.55156 32944 ft 470 kts 74°
2026-05-06 07:31 65.26339 -65.40580 32974 ft 469 kts 74°
2026-05-06 07:32 65.28627 -65.26068 33011 ft 469 kts 74°
2026-05-06 07:32 65.30916 -65.11435 33010 ft 469 kts 74°
2026-05-06 07:33 65.33158 -64.96999 32998 ft 467 kts 75°
2026-05-06 07:33 65.35394 -64.82488 33049 ft 466 kts 75°
2026-05-06 07:34 65.37623 -64.67892 33031 ft 466 kts 75°
2026-05-06 07:34 65.39840 -64.53256 33048 ft 465 kts 75°
2026-05-06 07:35 65.42044 -64.38589 33066 ft 469 kts 75°
2026-05-06 07:35 65.44243 -64.23843 33083 ft 472 kts 75°
2026-05-06 07:36 65.46457 -64.08877 33095 ft 475 kts 75°
2026-05-06 07:36 65.48633 -63.94044 33124 ft 476 kts 75°
2026-05-06 07:37 65.50813 -63.79071 33107 ft 474 kts 75°
2026-05-06 07:37 65.52963 -63.64173 33135 ft 470 kts 75°
2026-05-06 07:38 65.55097 -63.49249 33122 ft 468 kts 76°
2026-05-06 07:38 65.57204 -63.34385 33122 ft 467 kts 76°
2026-05-06 07:39 65.59280 -63.19611 33142 ft 466 kts 76°
2026-05-06 07:39 65.61357 -63.04711 33159 ft 467 kts 76°
2026-05-06 07:40 65.63383 -62.90044 33168 ft 467 kts 76°
2026-05-06 07:40 65.65435 -62.75064 33167 ft 468 kts 76°
2026-05-06 07:41 65.67464 -62.60131 33163 ft 469 kts 76°
2026-05-06 07:41 65.69493 -62.45068 33166 ft 469 kts 76°
2026-05-06 07:42 65.71509 -62.29947 33179 ft 471 kts 76°
2026-05-06 07:42 65.73508 -62.14825 33176 ft 474 kts 76°
2026-05-06 07:43 65.75501 -61.99619 33184 ft 476 kts 76°
2026-05-06 07:43 65.77480 -61.84377 33199 ft 477 kts 76°
2026-05-06 07:44 65.79468 -61.68935 33197 ft 477 kts 76°
2026-05-06 07:44 65.81436 -61.53501 33187 ft 475 kts 77°
2026-05-06 07:45 65.83367 -61.38203 33195 ft 473 kts 77°
2026-05-06 07:45 65.85287 -61.22845 33167 ft 472 kts 76°
2026-05-06 07:46 65.87185 -61.07512 33191 ft 475 kts 76°
2026-05-06 07:46 65.89073 -60.92128 33205 ft 477 kts 76°
2026-05-06 07:47 65.90960 -60.76594 33205 ft 479 kts 77°
2026-05-06 07:47 65.92849 -60.60895 33202 ft 480 kts 77°
2026-05-06 07:48 65.94722 -60.45180 33206 ft 479 kts 77°
2026-05-06 07:48 65.96565 -60.29553 33199 ft 478 kts 77°
2026-05-06 07:49 65.98397 -60.13875 33175 ft 477 kts 76°
2026-05-06 07:49 66.00143 -59.98346 33200 ft 477 kts 81°
2026-05-06 07:50 66.00772 -59.82215 33214 ft 477 kts 89°
2026-05-06 07:50 66.01127 -59.65902 33202 ft 479 kts 88°
2026-05-06 07:51 66.01545 -59.49503 33209 ft 481 kts 88°
2026-05-06 07:51 66.02003 -59.33147 33206 ft 481 kts 88°
2026-05-06 07:52 66.02462 -59.16738 33203 ft 479 kts 88°
2026-05-06 07:52 66.02899 -59.00446 33209 ft 478 kts 88°
2026-05-06 07:53 66.03312 -58.84293 33211 ft 477 kts 88°
2026-05-06 07:53 66.03707 -58.68072 33196 ft 478 kts 88°
2026-05-06 07:54 66.04089 -58.51671 33217 ft 481 kts 88°
2026-05-06 07:54 66.04457 -58.35161 33226 ft 484 kts 88°
2026-05-06 07:55 66.04807 -58.18647 33219 ft 486 kts 88°
2026-05-06 07:55 66.05143 -58.01993 33220 ft 486 kts 88°
2026-05-06 07:56 66.05457 -57.85528 33219 ft 486 kts 88°
2026-05-06 07:56 66.05754 -57.68968 33222 ft 485 kts 89°
2026-05-06 07:57 66.06035 -57.52365 33225 ft 484 kts 89°
2026-05-06 07:57 66.06295 -57.35894 33225 ft 483 kts 89°
2026-05-06 07:58 66.06538 -57.19328 33217 ft 483 kts 88°
2026-05-06 07:58 66.06764 -57.02809 33236 ft 485 kts 88°
2026-05-06 07:59 66.06973 -56.86364 33237 ft 487 kts 88°
2026-05-06 07:59 66.07165 -56.69743 33234 ft 488 kts 89°
2026-05-06 08:00 66.07340 -56.52993 33240 ft 489 kts 89°
2026-05-06 08:00 66.07497 -56.36213 33242 ft 488 kts 89°
2026-05-06 08:01 66.07634 -56.19571 33243 ft 488 kts 89°
2026-05-06 08:01 66.07755 -56.02837 33237 ft 486 kts 89°
2026-05-06 08:02 66.07855 -55.86479 33241 ft 485 kts 89°
2026-05-06 08:02 66.07939 -55.69862 33225 ft 484 kts 89°
2026-05-06 08:03 66.08006 -55.53174 33245 ft 487 kts 89°
2026-05-06 08:03 66.08055 -55.36506 33249 ft 489 kts 89°
2026-05-06 08:04 66.08086 -55.19789 33245 ft 491 kts 89°
2026-05-06 08:04 66.08098 -55.02944 33249 ft 491 kts 89°
2026-05-06 08:05 66.08092 -54.86312 33245 ft 490 kts 90°
2026-05-06 08:05 66.08069 -54.69630 33243 ft 489 kts 90°
2026-05-06 08:06 66.08027 -54.52838 33242 ft 488 kts 90°
2026-05-06 08:06 66.07967 -54.36237 33243 ft 487 kts 90°
2026-05-06 08:07 66.07889 -54.19533 33228 ft 488 kts 90°
2026-05-06 08:07 66.07792 -54.02747 33246 ft 491 kts 90°
2026-05-06 08:08 66.07680 -53.86087 33240 ft 494 kts 90°
2026-05-06 08:08 66.07545 -53.69073 33239 ft 496 kts 90°
2026-05-06 08:09 66.07392 -53.52135 33245 ft 497 kts 90°
2026-05-06 08:09 66.07219 -53.35098 33240 ft 496 kts 90°
2026-05-06 08:10 66.07030 -53.18181 33242 ft 495 kts 90°
2026-05-06 08:10 66.06821 -53.01204 33228 ft 495 kts 90°
2026-05-06 08:11 66.06598 -52.84535 33241 ft 494 kts 90°
2026-05-06 08:11 66.06351 -52.67574 33224 ft 495 kts 90°
2026-05-06 08:12 66.06087 -52.50583 33237 ft 497 kts 90°
2026-05-06 08:12 66.05804 -52.33620 33245 ft 499 kts 90°
2026-05-06 08:13 66.05500 -52.16497 33236 ft 500 kts 91°
2026-05-06 08:13 66.05179 -51.99575 33230 ft 501 kts 91°
2026-05-06 08:14 66.04836 -51.82518 33249 ft 500 kts 91°
2026-05-06 08:14 66.04478 -51.65501 33226 ft 500 kts 91°
2026-05-06 08:15 66.04098 -51.48386 33231 ft 499 kts 91°
2026-05-06 08:15 66.03701 -51.31407 33230 ft 499 kts 91°
2026-05-06 08:16 66.03283 -51.14321 33234 ft 500 kts 91°
2026-05-06 08:16 66.02854 -50.97518 33241 ft 502 kts 91°
2026-05-06 08:17 66.02395 -50.80302 33234 ft 503 kts 91°
2026-05-06 08:17 66.01920 -50.63182 33232 ft 504 kts 91°
2026-05-06 08:18 66.01422 -50.45971 33234 ft 504 kts 91°
2026-05-06 08:18 66.00905 -50.28768 33228 ft 504 kts 91°
2026-05-06 08:19 66.00377 -50.11704 33233 ft 503 kts 92°
2026-05-06 08:19 65.99908 -49.97668 33243 ft 503 kts 94°
2026-05-06 08:20 65.98886 -49.80618 33242 ft 504 kts 97°
2026-05-06 08:20 65.97677 -49.63657 33249 ft 504 kts 97°
2026-05-06 08:21 65.96485 -49.46815 33247 ft 503 kts 97°
2026-05-06 08:21 65.95312 -49.29864 33255 ft 503 kts 97°
2026-05-06 08:22 65.94137 -49.12927 33258 ft 503 kts 97°
2026-05-06 08:22 65.92963 -48.96282 33260 ft 503 kts 97°
2026-05-06 08:23 65.91757 -48.79480 33256 ft 503 kts 97°
2026-05-06 08:23 65.90521 -48.62562 33253 ft 503 kts 97°
2026-05-06 08:24 65.89268 -48.45700 33239 ft 503 kts 97°
2026-05-06 08:24 65.88003 -48.28929 33239 ft 503 kts 97°
2026-05-06 08:25 65.86722 -48.12201 33230 ft 503 kts 97°
2026-05-06 08:25 65.85429 -47.95566 33238 ft 505 kts 97°
2026-05-06 08:26 65.84097 -47.78670 33215 ft 507 kts 97°
2026-05-06 08:26 65.82751 -47.61863 33214 ft 508 kts 97°
2026-05-06 08:27 65.81374 -47.44922 33213 ft 508 kts 97°
2026-05-06 08:27 65.79978 -47.28003 33204 ft 508 kts 97°
2026-05-06 08:28 65.78573 -47.11216 33207 ft 508 kts 97°
2026-05-06 08:28 65.77158 -46.94547 33206 ft 508 kts 97°
2026-05-06 08:29 65.75718 -46.77797 33199 ft 507 kts 97°
2026-05-06 08:29 65.74252 -46.60982 33195 ft 507 kts 97°
2026-05-06 08:30 65.72766 -46.44184 33196 ft 507 kts 98°
2026-05-06 08:30 65.71270 -46.27495 33206 ft 508 kts 97°
2026-05-06 08:31 65.69751 -46.10755 33201 ft 510 kts 97°
2026-05-06 08:31 65.68220 -45.94122 33216 ft 511 kts 97°
2026-05-06 08:32 65.66646 -45.77235 33211 ft 512 kts 97°
2026-05-06 08:32 65.65064 -45.60480 33210 ft 512 kts 98°
2026-05-06 08:33 65.63456 -45.43680 33215 ft 512 kts 98°
2026-05-06 08:33 65.61826 -45.26864 33254 ft 511 kts 98°
2026-05-06 08:34 65.59358 -45.01794 33263 ft 511 kts 98°
2026-05-06 08:35 65.57710 -44.85295 33264 ft 511 kts 98°
2026-05-06 08:35 65.56032 -44.68689 33380 ft 512 kts 98°
2026-05-06 08:36 65.54316 -44.51922 33376 ft 513 kts 98°
2026-05-06 08:36 65.52588 -44.35249 33425 ft 514 kts 98°
2026-05-06 08:37 65.50832 -44.18513 33440 ft 515 kts 98°
2026-05-06 08:37 65.49068 -44.01883 33521 ft 515 kts 98°
2026-05-06 08:38 65.47300 -43.85407 33541 ft 514 kts 98°
2026-05-06 08:38 65.45490 -43.68743 33542 ft 514 kts 98°
2026-05-06 08:39 65.43662 -43.52100 33565 ft 514 kts 98°
2026-05-06 08:39 65.41818 -43.35501 33601 ft 514 kts 98°
2026-05-06 08:40 65.39969 -43.19035 33620 ft 514 kts 98°
2026-05-06 08:40 65.38081 -43.02403 33603 ft 517 kts 98°
2026-05-06 08:41 65.36195 -42.85963 33620 ft 519 kts 98°
2026-05-06 08:41 65.34257 -42.69274 33612 ft 520 kts 98°
2026-05-06 08:42 65.32310 -42.52691 33612 ft 520 kts 98°
2026-05-06 08:42 65.30331 -42.36019 33612 ft 520 kts 98°
2026-05-06 08:43 65.28333 -42.19362 33607 ft 520 kts 98°
2026-05-06 08:43 65.26319 -42.02752 33622 ft 520 kts 99°
2026-05-06 08:44 65.24323 -41.86455 33613 ft 520 kts 99°
2026-05-06 08:44 65.22269 -41.69861 33631 ft 520 kts 99°
2026-05-06 08:45 65.20209 -41.53398 33651 ft 521 kts 98°
2026-05-06 08:45 65.18113 -41.36797 33638 ft 524 kts 98°
2026-05-06 08:46 65.16006 -41.20272 33619 ft 525 kts 98°
2026-05-06 08:46 65.13859 -41.03632 33579 ft 526 kts 99°
2026-05-06 08:47 65.11728 -40.87285 33575 ft 526 kts 99°
2026-05-06 08:47 65.09542 -40.70672 33575 ft 526 kts 99°
2026-05-06 08:48 65.07385 -40.54440 33564 ft 526 kts 99°
2026-05-06 08:48 65.05167 -40.37904 33552 ft 526 kts 99°
2026-05-06 08:49 65.02930 -40.21394 33544 ft 526 kts 99°
2026-05-06 08:49 65.00691 -40.05004 33625 ft 527 kts 99°
2026-05-06 08:50 64.97893 -39.89547 33555 ft 545 kts 112°
2026-05-06 08:50 64.93977 -39.74118 33546 ft 548 kts 114°
2026-05-06 08:51 64.90096 -39.58782 33563 ft 547 kts 113°
2026-05-06 08:51 64.86273 -39.43251 33552 ft 546 kts 112°
2026-05-06 08:52 64.82505 -39.27807 33549 ft 546 kts 112°
2026-05-06 08:52 64.78730 -39.12439 33550 ft 545 kts 112°
2026-05-06 08:53 64.74963 -38.97249 33586 ft 545 kts 113°
2026-05-06 08:53 64.71128 -38.81902 33553 ft 545 kts 114°
2026-05-06 08:54 64.67297 -38.66706 33548 ft 545 kts 114°
2026-05-06 08:54 64.63433 -38.51475 33548 ft 544 kts 114°
2026-05-06 08:55 64.59578 -38.36374 33549 ft 544 kts 114°
2026-05-06 08:55 64.55680 -38.21207 33567 ft 544 kts 115°
2026-05-06 08:56 64.51788 -38.06170 33539 ft 545 kts 115°
2026-05-06 08:56 64.47925 -37.91346 33559 ft 545 kts 115°
2026-05-06 08:57 64.43981 -37.76316 33546 ft 545 kts 115°
2026-05-06 08:57 64.40041 -37.61398 33547 ft 544 kts 116°
2026-05-06 08:58 64.36068 -37.46451 33554 ft 544 kts 116°
2026-05-06 08:58 64.32089 -37.31589 33546 ft 544 kts 116°
2026-05-06 08:59 64.28115 -37.16846 33548 ft 543 kts 116°
2026-05-06 08:59 64.24109 -37.02077 33539 ft 544 kts 117°
2026-05-06 09:00 64.20151 -36.87579 33560 ft 544 kts 117°
2026-05-06 09:00 64.16099 -36.72832 33543 ft 545 kts 117°
2026-05-06 09:01 64.12051 -36.58202 33537 ft 546 kts 117°
2026-05-06 09:01 64.07963 -36.43521 33533 ft 546 kts 118°
2026-05-06 09:02 64.03865 -36.28902 33532 ft 546 kts 118°
2026-05-06 09:02 63.99776 -36.14406 33549 ft 546 kts 118°
2026-05-06 09:03 63.95660 -35.99907 33525 ft 547 kts 118°
2026-05-06 09:03 63.91570 -35.85599 33526 ft 547 kts 118°
2026-05-06 09:04 63.87393 -35.71076 33515 ft 548 kts 119°
2026-05-06 09:04 63.83234 -35.56711 33520 ft 547 kts 119°
2026-05-06 09:05 63.79039 -35.42308 33520 ft 548 kts 120°
2026-05-06 09:05 63.74816 -35.27903 33522 ft 548 kts 120°
2026-05-06 09:06 63.70604 -35.13626 33517 ft 549 kts 120°
2026-05-06 09:06 63.66404 -34.99483 33509 ft 549 kts 120°
2026-05-06 09:07 63.62133 -34.85188 33507 ft 549 kts 120°
2026-05-06 09:07 63.57876 -34.71032 33511 ft 549 kts 120°
2026-05-06 09:08 63.53572 -34.56806 33509 ft 549 kts 120°
2026-05-06 09:08 63.49283 -34.42720 33502 ft 549 kts 120°
2026-05-06 09:09 63.44957 -34.28601 33494 ft 549 kts 121°
2026-05-06 09:09 63.40635 -34.14582 33499 ft 550 kts 121°
2026-05-06 09:10 63.36273 -34.00517 33491 ft 551 kts 121°
2026-05-06 09:10 63.31961 -33.86703 33484 ft 552 kts 121°
2026-05-06 09:11 63.28302 -33.75044 33498 ft 553 kts 121°
2026-05-06 09:11 63.23155 -33.58747 33479 ft 553 kts 122°
2026-05-06 09:12 63.19466 -33.47138 33462 ft 552 kts 122°
2026-05-06 09:12 63.15012 -33.33204 33466 ft 552 kts 122°
2026-05-06 09:13 63.10557 -33.19348 33456 ft 552 kts 122°
2026-05-06 09:13 63.06117 -33.05621 33459 ft 552 kts 122°
2026-05-06 09:14 63.01671 -32.91959 33452 ft 553 kts 123°
2026-05-06 09:14 62.97203 -32.78310 33447 ft 554 kts 123°
2026-05-06 09:15 62.92673 -32.64558 33435 ft 554 kts 123°
2026-05-06 09:15 62.88133 -32.50855 33439 ft 555 kts 123°
2026-05-06 09:16 62.83601 -32.37262 33425 ft 555 kts 124°
2026-05-06 09:16 62.79028 -32.23626 33414 ft 556 kts 124°
2026-05-06 09:17 62.74429 -32.09994 33413 ft 556 kts 124°
2026-05-06 09:17 62.69902 -31.96654 33400 ft 557 kts 124°
2026-05-06 09:18 62.65282 -31.83122 33399 ft 557 kts 124°
2026-05-06 09:18 62.60644 -31.69615 33392 ft 557 kts 124°
2026-05-06 09:19 62.55980 -31.56116 33389 ft 557 kts 125°
2026-05-06 09:19 62.51342 -31.42769 33375 ft 557 kts 125°
2026-05-06 09:20 62.46654 -31.29357 33366 ft 557 kts 125°
2026-05-06 09:20 62.41987 -31.16085 33367 ft 558 kts 126°
2026-05-06 09:21 62.37270 -31.02747 33356 ft 558 kts 126°
2026-05-06 09:21 62.32594 -30.89602 33360 ft 559 kts 126°
2026-05-06 09:22 62.27877 -30.76416 33348 ft 559 kts 126°
2026-05-06 09:22 62.23108 -30.63163 33348 ft 559 kts 126°
2026-05-06 09:23 62.18341 -30.49994 33332 ft 560 kts 127°
2026-05-06 09:23 62.13566 -30.36875 33331 ft 560 kts 127°
2026-05-06 09:24 62.08753 -30.23726 33369 ft 561 kts 127°
2026-05-06 09:24 62.03922 -30.10601 33311 ft 561 kts 127°
2026-05-06 09:25 61.99209 -29.97783 33298 ft 560 kts 125°
2026-05-06 09:25 61.94757 -29.84179 33307 ft 559 kts 122°
2026-05-06 09:26 61.90446 -29.70523 33305 ft 560 kts 122°
2026-05-06 09:26 61.86068 -29.56837 33289 ft 561 kts 123°
2026-05-06 09:27 61.81648 -29.43270 33290 ft 561 kts 123°
2026-05-06 09:27 61.77171 -29.29669 33277 ft 562 kts 124°
2026-05-06 09:28 61.72683 -29.16111 33282 ft 563 kts 124°
2026-05-06 09:28 61.68206 -29.02653 33280 ft 563 kts 124°
2026-05-06 09:29 61.63738 -28.89290 33270 ft 563 kts 124°
2026-05-06 09:29 61.59202 -28.75804 33265 ft 563 kts 124°
2026-05-06 09:30 61.54695 -28.62481 33267 ft 563 kts 124°
2026-05-06 09:30 61.50133 -28.49078 33257 ft 561 kts 124°
2026-05-06 09:31 61.45607 -28.35855 33240 ft 560 kts 124°
2026-05-06 09:31 61.41044 -28.22601 33218 ft 559 kts 125°
2026-05-06 09:32 61.36512 -28.09511 33232 ft 560 kts 125°
2026-05-06 09:32 61.31972 -27.96471 33226 ft 561 kts 125°
2026-05-06 09:33 61.27365 -27.83317 33215 ft 562 kts 126°
2026-05-06 09:33 61.22761 -27.70242 33204 ft 563 kts 126°
2026-05-06 09:34 61.18120 -27.57134 33202 ft 564 kts 126°
2026-05-06 09:34 61.13481 -27.44112 33196 ft 565 kts 126°
2026-05-06 09:35 61.08798 -27.31042 33180 ft 565 kts 126°
2026-05-06 09:35 61.04105 -27.18011 33191 ft 565 kts 126°
2026-05-06 09:36 60.99407 -27.05043 33150 ft 563 kts 127°
2026-05-06 09:36 60.94793 -26.92375 33169 ft 562 kts 127°
2026-05-06 09:37 60.90078 -26.79506 33158 ft 562 kts 127°
2026-05-06 09:37 60.85343 -26.66652 33152 ft 563 kts 127°
2026-05-06 09:38 60.80622 -26.53905 33138 ft 564 kts 127°
2026-05-06 09:38 60.75859 -26.41112 33121 ft 565 kts 128°
2026-05-06 09:39 60.71088 -26.28374 33128 ft 567 kts 128°
2026-05-06 09:39 60.66269 -26.15580 33104 ft 568 kts 128°
2026-05-06 09:40 60.61465 -26.02890 33110 ft 568 kts 128°
2026-05-06 09:40 60.54289 -25.84063 33098 ft 569 kts 129°
2026-05-06 09:41 60.49407 -25.71346 33083 ft 569 kts 129°
2026-05-06 09:41 60.44555 -25.58776 33066 ft 569 kts 129°
2026-05-06 09:42 60.39658 -25.46155 33051 ft 568 kts 129°
2026-05-06 09:42 60.34758 -25.33592 33050 ft 568 kts 130°
2026-05-06 09:43 60.29839 -25.21054 33044 ft 570 kts 130°
2026-05-06 09:43 60.24916 -25.08573 33013 ft 572 kts 130°
2026-05-06 09:44 60.19996 -24.96165 33011 ft 572 kts 130°
2026-05-06 09:44 60.15046 -24.83746 32982 ft 572 kts 131°
2026-05-06 09:45 60.10045 -24.71268 32997 ft 573 kts 131°
2026-05-06 09:45 60.05028 -24.58817 32996 ft 573 kts 131°
2026-05-06 09:46 60.00043 -24.46511 32945 ft 571 kts 131°
2026-05-06 09:46 59.95045 -24.34236 32891 ft 569 kts 132°
2026-05-06 09:47 59.90041 -24.22013 32934 ft 569 kts 132°
2026-05-06 09:47 59.85017 -24.09814 32910 ft 570 kts 132°
2026-05-06 09:48 59.80052 -23.97813 32894 ft 571 kts 132°
2026-05-06 09:48 59.74979 -23.85616 32888 ft 572 kts 132°
2026-05-06 09:49 59.69894 -23.73451 32895 ft 572 kts 133°
2026-05-06 09:49 59.64824 -23.61391 32857 ft 574 kts 133°
2026-05-06 09:50 59.59700 -23.49265 32861 ft 574 kts 133°
2026-05-06 09:50 59.54557 -23.37155 32890 ft 574 kts 133°
2026-05-06 09:51 59.49445 -23.25180 32853 ft 573 kts 133°
2026-05-06 09:51 59.44301 -23.13190 32812 ft 572 kts 134°
2026-05-06 09:52 59.39148 -23.01244 32820 ft 571 kts 134°
2026-05-06 09:52 59.34085 -22.89568 32822 ft 570 kts 134°
2026-05-06 09:53 59.28939 -22.77762 32801 ft 569 kts 134°
2026-05-06 09:53 59.23766 -22.65952 32791 ft 570 kts 135°
2026-05-06 09:54 59.18615 -22.54253 32808 ft 571 kts 135°
2026-05-06 09:54 59.13418 -22.42507 32817 ft 572 kts 135°
2026-05-06 09:55 59.08207 -22.30787 32788 ft 572 kts 135°
2026-05-06 09:55 59.03018 -22.19177 32820 ft 571 kts 135°
2026-05-06 09:56 58.97793 -22.07550 32809 ft 572 kts 135°
2026-05-06 09:56 58.92627 -21.96108 32821 ft 572 kts 135°
2026-05-06 09:57 58.87364 -21.84507 32784 ft 571 kts 136°
2026-05-06 09:57 58.82144 -21.73059 32829 ft 570 kts 136°
2026-05-06 09:58 58.76885 -21.61584 32836 ft 569 kts 136°
2026-05-06 09:58 58.72511 -21.52083 32840 ft 569 kts 136°
2026-05-06 09:59 58.67233 -21.40670 32800 ft 569 kts 136°
2026-05-06 09:59 58.61990 -21.29386 32856 ft 567 kts 136°
2026-05-06 10:00 58.56725 -21.18111 32846 ft 567 kts 136°
2026-05-06 10:00 58.51445 -21.06861 32861 ft 566 kts 136°
2026-05-06 10:01 58.46247 -20.95842 32852 ft 568 kts 137°
2026-05-06 10:01 58.40935 -20.84629 32864 ft 567 kts 136°
2026-05-06 10:02 58.35654 -20.73534 32863 ft 567 kts 137°
2026-05-06 10:02 58.30345 -20.62437 32863 ft 566 kts 137°
2026-05-06 10:03 58.25045 -20.51411 32875 ft 566 kts 137°
2026-05-06 10:03 58.19715 -20.40378 32871 ft 564 kts 136°
2026-05-06 10:04 58.14432 -20.29490 32867 ft 563 kts 137°
2026-05-06 10:04 58.09106 -20.18566 32876 ft 563 kts 137°
2026-05-06 10:05 58.03785 -20.07697 32877 ft 563 kts 137°
2026-05-06 10:05 57.98491 -19.97149 32873 ft 559 kts 141°
2026-05-06 10:06 57.92592 -19.87650 32885 ft 557 kts 145°
2026-05-06 10:06 57.86583 -19.78365 32880 ft 559 kts 145°
2026-05-06 10:07 57.80633 -19.69038 32892 ft 561 kts 144°
2026-05-06 10:07 57.74666 -19.59574 32881 ft 559 kts 144°
2026-05-06 10:08 57.68761 -19.50212 32893 ft 559 kts 144°
2026-05-06 10:08 57.62805 -19.40828 32881 ft 559 kts 144°
2026-05-06 10:09 57.56843 -19.31490 32882 ft 558 kts 144°
2026-05-06 10:09 57.50896 -19.22222 32866 ft 556 kts 144°
2026-05-06 10:10 57.44995 -19.13062 32877 ft 554 kts 144°
2026-05-06 10:10 57.39063 -19.03895 32879 ft 554 kts 144°
2026-05-06 10:11 57.33212 -18.94893 32881 ft 554 kts 144°
2026-05-06 10:11 57.27263 -18.85777 32886 ft 555 kts 144°
2026-05-06 10:12 57.21294 -18.76672 32889 ft 555 kts 144°
2026-05-06 10:12 57.15322 -18.67602 32897 ft 555 kts 144°
2026-05-06 10:13 57.09372 -18.58602 32878 ft 556 kts 144°
2026-05-06 10:13 57.03389 -18.49592 32900 ft 555 kts 144°
2026-05-06 10:14 56.97447 -18.40681 32908 ft 554 kts 144°
2026-05-06 10:14 56.91456 -18.31735 32911 ft 554 kts 144°
2026-05-06 10:15 56.85508 -18.22893 32886 ft 553 kts 144°
2026-05-06 10:15 56.79527 -18.14040 32927 ft 552 kts 144°
2026-05-06 10:16 56.73553 -18.05232 32926 ft 552 kts 144°
2026-05-06 10:16 56.67685 -17.96616 32939 ft 551 kts 144°
2026-05-06 10:17 56.61702 -17.87870 32928 ft 551 kts 144°
2026-05-06 10:17 56.55722 -17.79163 32942 ft 550 kts 144°
2026-05-06 10:18 56.49743 -17.70495 32954 ft 549 kts 144°
2026-05-06 10:18 56.43802 -17.61917 32963 ft 549 kts 144°
2026-05-06 10:19 56.37807 -17.53298 32963 ft 548 kts 144°
2026-05-06 10:19 56.31853 -17.44773 32967 ft 549 kts 144°
2026-05-06 10:20 56.25848 -17.36210 32974 ft 549 kts 144°
2026-05-06 10:20 56.19871 -17.27721 32976 ft 550 kts 144°
2026-05-06 10:21 56.13859 -17.19218 32987 ft 549 kts 143°
2026-05-06 10:21 56.07858 -17.10763 32983 ft 548 kts 144°
2026-05-06 10:22 56.01854 -17.02341 32986 ft 548 kts 144°
2026-05-06 10:22 55.95928 -16.94060 32992 ft 547 kts 144°
2026-05-06 10:23 55.89939 -16.85727 32990 ft 547 kts 143°
2026-05-06 10:23 55.83962 -16.77442 32995 ft 546 kts 144°
2026-05-06 10:24 55.77948 -16.69140 33001 ft 546 kts 144°
2026-05-06 10:24 55.71953 -16.60897 32999 ft 547 kts 144°
2026-05-06 10:25 55.65919 -16.52635 32994 ft 546 kts 143°
2026-05-06 10:25 55.59892 -16.44413 33009 ft 546 kts 143°
2026-05-06 10:26 55.53890 -16.36258 33009 ft 546 kts 143°
2026-05-06 10:26 55.47837 -16.28067 33005 ft 547 kts 143°
2026-05-06 10:27 55.41809 -16.19941 33017 ft 548 kts 143°
2026-05-06 10:27 55.35733 -16.11784 33017 ft 549 kts 143°
2026-05-06 10:28 55.29686 -16.03697 33023 ft 549 kts 143°
2026-05-06 10:28 55.23670 -15.95684 33004 ft 548 kts 143°
2026-05-06 10:29 55.17607 -15.87639 33020 ft 545 kts 143°
2026-05-06 10:29 55.11582 -15.79676 33020 ft 544 kts 143°
2026-05-06 10:30 55.05530 -15.71708 33026 ft 543 kts 143°
2026-05-06 10:30 54.99534 -15.63843 33028 ft 543 kts 143°
2026-05-06 10:31 54.93476 -15.55929 33028 ft 543 kts 143°
2026-05-06 10:31 54.87418 -15.48045 33030 ft 544 kts 143°
2026-05-06 10:32 54.81381 -15.40218 33031 ft 544 kts 143°
2026-05-06 10:32 54.75305 -15.32371 33025 ft 542 kts 143°
2026-05-06 10:33 54.69246 -15.24575 33038 ft 542 kts 143°
2026-05-06 10:33 54.63189 -15.16809 33034 ft 542 kts 143°
2026-05-06 10:34 54.57171 -15.09119 33020 ft 541 kts 143°
2026-05-06 10:34 54.51998 -14.99997 33043 ft 532 kts 116°
2026-05-06 10:35 54.50560 -14.94299 33043 ft 527 kts 104°
2026-05-06 10:35 54.49836 -14.88164 33025 ft 521 kts 89°
2026-05-06 10:35 54.49967 -14.75826 33040 ft 517 kts 84°
2026-05-06 10:36 54.50088 -14.63457 33042 ft 521 kts 85°
2026-05-06 10:36 54.50108 -14.50969 33041 ft 523 kts 86°
2026-05-06 10:37 54.50093 -14.38442 33039 ft 522 kts 86°
2026-05-06 10:37 54.50074 -14.26034 33039 ft 521 kts 86°
2026-05-06 10:38 54.50048 -14.13568 33040 ft 520 kts 86°
2026-05-06 10:38 54.49574 -14.01275 33042 ft 525 kts 101°
2026-05-06 10:39 54.48231 -13.95556 33043 ft 533 kts 118°
2026-05-06 10:39 54.46044 -13.90375 33033 ft 534 kts 129°
2026-05-06 10:39 54.41306 -13.80525 33043 ft 535 kts 125°
2026-05-06 10:40 54.36822 -13.70269 33053 ft 537 kts 124°
2026-05-06 10:40 54.32398 -13.60047 33043 ft 538 kts 124°
2026-05-06 10:41 54.27886 -13.49789 33044 ft 537 kts 125°
2026-05-06 10:41 54.23386 -13.39683 33047 ft 535 kts 125°
2026-05-06 10:42 54.18863 -13.29587 33044 ft 533 kts 125°
2026-05-06 10:42 54.14347 -13.19535 33046 ft 531 kts 125°
2026-05-06 10:43 54.09866 -13.09594 33049 ft 531 kts 125°
2026-05-06 10:44 54.03139 -12.94742 33053 ft 530 kts 125°
2026-05-06 10:44 53.98658 -12.84898 33045 ft 529 kts 125°
2026-05-06 10:45 53.94139 -12.75012 33054 ft 528 kts 125°
2026-05-06 10:45 53.89650 -12.65227 33065 ft 528 kts 125°
2026-05-06 10:46 53.85116 -12.55383 33053 ft 529 kts 125°
2026-05-06 10:46 53.81346 -12.47229 33050 ft 527 kts 125°
2026-05-06 10:47 53.76839 -12.37517 33055 ft 526 kts 125°
2026-05-06 10:47 53.72323 -12.27821 33055 ft 525 kts 125°
2026-05-06 10:48 53.67819 -12.18195 33039 ft 510 kts 126°
2026-05-06 10:48 53.63467 -12.08932 33039 ft 497 kts 126°
2026-05-06 10:49 53.59249 -11.99979 33066 ft 486 kts 125°
2026-05-06 10:49 53.55103 -11.91203 33052 ft 480 kts 126°
2026-05-06 10:50 53.50982 -11.82514 33047 ft 475 kts 126°
2026-05-06 10:50 53.46869 -11.73872 33050 ft 471 kts 126°
2026-05-06 10:51 53.42779 -11.65309 33050 ft 468 kts 126°
2026-05-06 10:51 53.38734 -11.56868 33053 ft 464 kts 126°
2026-05-06 10:52 53.34703 -11.48488 33057 ft 462 kts 126°
2026-05-06 10:52 53.30661 -11.40111 33059 ft 460 kts 126°
2026-05-06 10:53 53.26663 -11.31851 33070 ft 459 kts 126°
2026-05-06 10:53 53.22644 -11.23577 33058 ft 456 kts 126°
2026-05-06 10:53 53.20670 -11.19529 33036 ft 441 kts 126°
2026-05-06 10:54 53.18763 -11.15628 33034 ft 426 kts 126°
2026-05-06 10:54 53.16917 -11.11855 33034 ft 413 kts 126°
2026-05-06 10:54 53.15142 -11.08232 33037 ft 402 kts 126°
2026-05-06 10:55 53.11679 -11.01167 33037 ft 385 kts 126°
2026-05-06 10:55 53.08383 -10.94458 33035 ft 370 kts 126°
2026-05-06 10:56 53.05190 -10.87977 33039 ft 358 kts 126°
2026-05-06 10:56 53.02059 -10.81636 32859 ft 354 kts 126°
2026-05-06 10:56 53.00496 -10.78473 32671 ft 354 kts 126°
2026-05-06 10:57 52.98935 -10.75321 32579 ft 352 kts 126°
2026-05-06 10:57 52.95840 -10.69088 32380 ft 349 kts 126°
2026-05-06 10:57 52.94294 -10.65979 32225 ft 350 kts 126°
2026-05-06 10:58 52.92747 -10.62873 32144 ft 348 kts 126°
2026-05-06 10:58 52.89691 -10.56751 31981 ft 346 kts 126°
2026-05-06 10:58 52.88154 -10.53677 31870 ft 346 kts 126°
2026-05-06 10:59 52.86621 -10.50613 31794 ft 345 kts 126°
2026-05-06 10:59 52.83566 -10.44523 31655 ft 343 kts 126°
2026-05-06 11:00 52.80539 -10.38500 31500 ft 342 kts 126°
2026-05-06 11:00 52.77503 -10.32477 31426 ft 339 kts 127°
2026-05-06 11:01 52.74480 -10.26491 31273 ft 339 kts 127°
2026-05-06 11:01 52.71474 -10.20555 31179 ft 337 kts 127°
2026-05-06 11:02 52.68464 -10.14623 31068 ft 337 kts 127°
2026-05-06 11:02 52.65474 -10.08746 30986 ft 336 kts 127°
2026-05-06 11:03 52.62461 -10.02836 30894 ft 336 kts 127°
2026-05-06 11:03 52.59508 -9.97059 30826 ft 335 kts 127°
2026-05-06 11:04 52.56508 -9.91203 30807 ft 333 kts 128°
2026-05-06 11:04 52.53513 -9.85371 30719 ft 333 kts 128°
2026-05-06 11:05 52.50548 -9.79608 30670 ft 332 kts 128°
2026-05-06 11:05 52.47550 -9.73797 30625 ft 332 kts 128°
2026-05-06 11:06 52.44565 -9.68021 30569 ft 331 kts 128°
2026-05-06 11:06 52.41597 -9.62289 30529 ft 331 kts 128°
2026-05-06 11:07 52.38622 -9.56562 30501 ft 331 kts 128°
2026-05-06 11:07 52.35600 -9.50889 30455 ft 331 kts 130°
2026-05-06 11:08 52.32506 -9.45325 30442 ft 330 kts 131°
2026-05-06 11:08 52.29398 -9.39755 30376 ft 332 kts 131°
2026-05-06 11:09 52.26283 -9.34166 30375 ft 331 kts 131°
2026-05-06 11:09 52.23194 -9.28625 30352 ft 331 kts 131°
2026-05-06 11:10 52.20088 -9.23065 30355 ft 331 kts 131°
2026-05-06 11:10 52.16999 -9.17544 30339 ft 330 kts 131°
2026-05-06 11:11 52.13882 -9.11983 30260 ft 332 kts 133°
2026-05-06 11:11 52.10783 -9.06469 30310 ft 331 kts 134°
2026-05-06 11:12 52.07660 -9.00925 30276 ft 332 kts 134°
2026-05-06 11:12 52.04593 -8.95493 30291 ft 331 kts 134°
2026-05-06 11:13 52.01466 -8.89965 30287 ft 331 kts 134°
2026-05-06 11:13 51.98365 -8.84496 30290 ft 331 kts 134°
2026-05-06 11:14 51.95234 -8.78986 30245 ft 332 kts 134°
2026-05-06 11:14 51.92116 -8.73509 30316 ft 330 kts 134°
2026-05-06 11:15 51.88996 -8.68043 30305 ft 331 kts 135°
2026-05-06 11:15 51.85868 -8.62574 30304 ft 330 kts 135°
2026-05-06 11:16 51.82760 -8.57154 30306 ft 330 kts 135°
2026-05-06 11:16 51.79632 -8.51708 30309 ft 330 kts 135°
2026-05-06 11:17 51.76515 -8.46295 30315 ft 330 kts 135°
2026-05-06 11:17 51.73384 -8.40867 30317 ft 329 kts 135°
2026-05-06 11:18 51.70290 -8.35517 30375 ft 327 kts 135°
2026-05-06 11:18 51.67165 -8.30125 30333 ft 328 kts 135°
2026-05-06 11:19 51.64043 -8.24749 30353 ft 328 kts 135°
2026-05-06 11:19 51.60936 -8.19411 30333 ft 328 kts 135°
2026-05-06 11:20 51.57807 -8.14047 30355 ft 328 kts 135°
2026-05-06 11:20 51.54702 -8.08735 30366 ft 328 kts 135°
2026-05-06 11:21 51.51563 -8.03376 30352 ft 328 kts 135°
2026-05-06 11:21 51.48484 -7.98131 30358 ft 328 kts 135°
2026-05-06 11:22 51.45357 -7.92815 30357 ft 328 kts 135°
2026-05-06 11:22 51.42218 -7.87491 30377 ft 328 kts 135°
2026-05-06 11:23 51.39081 -7.82181 30380 ft 328 kts 135°
2026-05-06 11:23 51.35967 -7.76920 30400 ft 328 kts 135°
2026-05-06 11:24 51.32819 -7.71612 30404 ft 328 kts 135°
2026-05-06 11:24 51.29669 -7.66313 30357 ft 329 kts 136°
2026-05-06 11:25 51.26524 -7.61032 30375 ft 329 kts 136°
2026-05-06 11:25 51.23355 -7.55751 30389 ft 329 kts 137°
2026-05-06 11:26 51.20040 -7.50716 30391 ft 328 kts 140°
2026-05-06 11:26 51.16708 -7.45778 30405 ft 328 kts 140°
2026-05-06 11:27 51.13365 -7.40808 30410 ft 328 kts 139°
2026-05-06 11:27 51.10051 -7.35870 30425 ft 328 kts 139°
2026-05-06 11:28 51.06712 -7.30891 30447 ft 328 kts 139°
2026-05-06 11:28 51.03398 -7.25956 30453 ft 328 kts 139°
2026-05-06 11:29 51.00063 -7.20999 30464 ft 328 kts 139°
2026-05-06 11:29 50.96732 -7.16057 30475 ft 328 kts 139°
2026-05-06 11:30 50.93411 -7.11141 30486 ft 328 kts 139°
2026-05-06 11:30 50.90074 -7.06210 30493 ft 328 kts 139°
2026-05-06 11:31 50.86731 -7.01280 30505 ft 328 kts 139°
2026-05-06 11:31 50.83432 -6.96424 30536 ft 327 kts 139°
2026-05-06 11:32 50.80086 -6.91511 30542 ft 328 kts 139°
2026-05-06 11:32 50.76766 -6.86646 30551 ft 328 kts 140°
2026-05-06 11:33 50.73412 -6.81741 30568 ft 327 kts 140°
2026-05-06 11:33 50.70065 -6.76855 30592 ft 327 kts 140°
2026-05-06 11:34 50.66735 -6.72004 30591 ft 327 kts 139°
2026-05-06 11:34 50.63382 -6.67130 30615 ft 327 kts 139°
2026-05-06 11:35 50.60047 -6.62291 30618 ft 327 kts 139°
2026-05-06 11:35 50.56716 -6.57470 30644 ft 326 kts 140°
2026-05-06 11:36 50.53922 -6.53432 30642 ft 327 kts 140°
2026-05-06 11:36 50.50023 -6.47807 30650 ft 327 kts 140°
2026-05-06 11:37 50.47226 -6.43782 30650 ft 327 kts 140°
2026-05-06 11:37 50.43875 -6.38967 30682 ft 326 kts 139°
2026-05-06 11:38 50.40539 -6.34184 30687 ft 326 kts 139°
2026-05-06 11:38 50.37182 -6.29381 30688 ft 326 kts 139°
2026-05-06 11:39 50.33823 -6.24584 30687 ft 326 kts 139°
2026-05-06 11:39 50.30464 -6.19796 30702 ft 326 kts 140°
2026-05-06 11:40 50.27125 -6.15047 30716 ft 326 kts 140°
2026-05-06 11:40 50.23759 -6.10269 30725 ft 326 kts 139°
2026-05-06 11:41 50.20399 -6.05509 30725 ft 326 kts 139°
2026-05-06 11:41 50.17065 -6.00794 30738 ft 326 kts 139°
2026-05-06 11:42 50.13721 -5.96075 30753 ft 326 kts 139°
2026-05-06 11:42 50.10370 -5.91355 30733 ft 326 kts 139°
2026-05-06 11:43 50.06995 -5.86612 30770 ft 326 kts 139°
2026-05-06 11:43 50.03647 -5.81916 30779 ft 325 kts 139°
2026-05-06 11:44 49.98587 -5.74834 30797 ft 325 kts 139°
2026-05-06 11:44 49.95233 -5.70151 30803 ft 326 kts 139°
2026-05-06 11:45 49.91855 -5.65445 30823 ft 325 kts 139°
2026-05-06 11:45 49.88480 -5.60751 30801 ft 326 kts 139°
2026-05-06 11:46 49.85110 -5.56075 30837 ft 325 kts 139°
2026-05-06 11:46 49.81736 -5.51402 30822 ft 326 kts 139°
2026-05-06 11:47 49.78356 -5.46729 30807 ft 327 kts 139°
2026-05-06 11:47 49.74962 -5.42047 30861 ft 326 kts 139°
2026-05-06 11:48 49.71552 -5.37350 31115 ft 336 kts 139°
2026-05-06 11:48 49.69772 -5.34904 31316 ft 352 kts 139°
2026-05-06 11:48 49.67878 -5.32304 31333 ft 372 kts 139°
2026-05-06 11:49 49.65894 -5.29583 31461 ft 390 kts 139°
2026-05-06 11:49 49.63821 -5.26742 31590 ft 407 kts 139°
2026-05-06 11:49 49.61657 -5.23780 31707 ft 423 kts 139°
2026-05-06 11:49 49.59407 -5.20702 31809 ft 439 kts 139°
2026-05-06 11:50 49.57118 -5.17575 31912 ft 453 kts 139°
2026-05-06 11:50 49.54711 -5.14291 32009 ft 467 kts 139°
2026-05-06 11:50 49.52241 -5.10925 32096 ft 479 kts 139°
2026-05-06 11:50 49.49711 -5.07484 32177 ft 490 kts 139°
2026-05-06 11:51 49.44211 -5.01007 32390 ft 505 kts 147°
2026-05-06 11:51 49.41358 -4.98165 32645 ft 507 kts 148°
2026-05-06 11:51 49.38374 -4.95243 32998 ft 507 kts 148°
2026-05-06 11:52 49.35405 -4.92326 33308 ft 508 kts 148°
2026-05-06 11:52 49.32429 -4.89369 33547 ft 510 kts 147°
2026-05-06 11:52 49.29446 -4.86374 33742 ft 513 kts 147°
2026-05-06 11:52 49.26449 -4.83343 33983 ft 514 kts 147°
2026-05-06 11:53 49.23471 -4.80321 34241 ft 514 kts 147°
2026-05-06 11:53 49.20532 -4.77337 34504 ft 513 kts 147°
2026-05-06 11:53 49.17553 -4.74317 34750 ft 513 kts 147°
2026-05-06 11:53 49.14569 -4.71299 34926 ft 514 kts 147°
2026-05-06 11:54 49.08612 -4.65292 34997 ft 514 kts 147°
2026-05-06 11:54 49.02655 -4.59309 35000 ft 510 kts 147°
2026-05-06 11:55 48.96755 -4.53399 34999 ft 510 kts 147°
2026-05-06 11:55 48.90804 -4.47457 35005 ft 511 kts 147°
2026-05-06 11:56 48.84853 -4.41531 35005 ft 512 kts 147°
2026-05-06 11:56 48.78918 -4.35638 35005 ft 512 kts 147°
2026-05-06 11:57 48.72941 -4.29719 34995 ft 512 kts 147°
2026-05-06 11:57 48.66998 -4.23851 34997 ft 511 kts 147°
2026-05-06 11:58 48.61029 -4.17975 34995 ft 511 kts 147°
2026-05-06 11:58 48.55104 -4.12159 34990 ft 511 kts 147°
2026-05-06 11:59 48.49117 -4.06298 34997 ft 511 kts 147°
2026-05-06 11:59 48.43128 -4.00452 34996 ft 511 kts 147°
2026-05-06 12:00 48.37255 -3.94736 34992 ft 511 kts 147°
2026-05-06 12:00 48.31266 -3.88922 34991 ft 511 kts 147°
2026-05-06 12:01 48.25281 -3.83130 34994 ft 511 kts 147°
2026-05-06 12:01 48.19297 -3.77354 34980 ft 511 kts 147°
2026-05-06 12:02 48.13347 -3.71626 34981 ft 511 kts 147°
2026-05-06 12:02 48.07361 -3.65877 34979 ft 511 kts 147°
2026-05-06 12:03 48.02109 -3.58932 34972 ft 509 kts 123°
2026-05-06 12:03 48.00465 -3.54261 34983 ft 508 kts 111°
2026-05-06 12:03 47.99247 -3.49338 34983 ft 506 kts 111°
2026-05-06 12:04 47.96430 -3.39643 34978 ft 510 kts 114°
2026-05-06 12:04 47.93423 -3.30091 34990 ft 513 kts 114°
2026-05-06 12:05 47.90414 -3.20457 34970 ft 513 kts 114°
2026-05-06 12:05 47.87429 -3.10782 34972 ft 511 kts 114°
2026-05-06 12:06 47.84464 -3.01165 34979 ft 510 kts 114°
2026-05-06 12:06 47.81550 -2.91758 34969 ft 509 kts 114°
2026-05-06 12:07 47.78570 -2.82186 34970 ft 508 kts 114°
2026-05-06 12:07 47.75610 -2.72717 34966 ft 507 kts 114°
2026-05-06 12:08 47.72624 -2.63194 34968 ft 507 kts 114°
2026-05-06 12:08 47.69634 -2.53694 34967 ft 507 kts 114°
2026-05-06 12:09 47.65954 -2.44876 34965 ft 508 kts 132°
2026-05-06 12:09 47.61090 -2.37244 34962 ft 508 kts 132°
2026-05-06 12:10 47.56401 -2.29463 34969 ft 508 kts 130°
2026-05-06 12:10 47.51765 -2.21525 34970 ft 509 kts 130°
2026-05-06 12:11 47.47136 -2.13610 34965 ft 509 kts 130°
2026-05-06 12:11 47.42505 -2.05751 34981 ft 510 kts 130°
2026-05-06 12:12 47.37894 -1.97954 34966 ft 511 kts 130°
2026-05-06 12:12 47.33215 -1.90062 34965 ft 509 kts 130°
2026-05-06 12:13 47.28552 -1.82204 34967 ft 508 kts 130°
2026-05-06 12:13 47.23924 -1.74415 34967 ft 508 kts 130°
2026-05-06 12:14 47.19258 -1.66586 34968 ft 509 kts 130°
2026-05-06 12:14 47.14527 -1.58904 34963 ft 510 kts 135°
2026-05-06 12:15 47.09186 -1.52002 34967 ft 511 kts 139°
2026-05-06 12:15 47.03793 -1.45141 34961 ft 511 kts 137°
2026-05-06 12:16 46.98514 -1.38229 34958 ft 511 kts 137°
2026-05-06 12:16 46.93202 -1.31279 34958 ft 512 kts 137°
2026-05-06 12:17 46.87897 -1.24365 34964 ft 512 kts 137°
2026-05-06 12:17 46.82561 -1.17427 34963 ft 513 kts 137°
2026-05-06 12:18 46.77237 -1.10520 34961 ft 514 kts 137°
2026-05-06 12:18 46.71882 -1.03593 34953 ft 514 kts 137°
2026-05-06 12:19 46.66600 -0.96777 34953 ft 513 kts 137°
2026-05-06 12:19 46.61242 -0.89880 34934 ft 513 kts 137°
2026-05-06 12:20 46.55931 -0.83058 34934 ft 511 kts 138°
2026-05-06 12:20 46.50594 -0.76184 34943 ft 512 kts 138°
2026-05-06 12:21 46.45250 -0.69312 34931 ft 512 kts 139°
2026-05-06 12:21 46.39216 -0.64027 34931 ft 512 kts 162°
2026-05-06 12:22 46.32305 -0.61550 34935 ft 513 kts 165°
2026-05-06 12:22 46.25474 -0.58476 34935 ft 519 kts 162°
2026-05-06 12:23 46.18599 -0.55170 34934 ft 519 kts 162°
2026-05-06 12:23 46.11768 -0.51970 34922 ft 513 kts 163°
2026-05-06 12:24 46.04973 -0.48862 34919 ft 515 kts 163°
2026-05-06 12:24 45.98151 -0.45760 34911 ft 516 kts 163°
2026-05-06 12:25 45.91327 -0.42658 34908 ft 516 kts 163°
2026-05-06 12:25 45.85617 -0.40066 34912 ft 516 kts 163°
2026-05-06 12:26 45.77641 -0.36454 34907 ft 516 kts 163°
2026-05-06 12:26 45.71945 -0.33880 34916 ft 516 kts 163°
2026-05-06 12:27 45.65101 -0.30743 34911 ft 515 kts 160°
2026-05-06 12:27 45.58598 -0.26391 34908 ft 516 kts 154°
2026-05-06 12:28 45.52223 -0.21774 34909 ft 516 kts 154°
2026-05-06 12:28 45.45786 -0.17232 34909 ft 516 kts 155°
2026-05-06 12:29 45.39318 -0.12776 34920 ft 516 kts 155°
2026-05-06 12:29 45.32872 -0.08371 34905 ft 516 kts 155°
2026-05-06 12:30 45.26391 -0.03948 34904 ft 516 kts 155°
2026-05-06 12:30 45.19982 0.00423 34913 ft 516 kts 155°
2026-05-06 12:31 45.13583 0.04777 34908 ft 515 kts 156°
2026-05-06 12:31 45.07133 0.09155 34910 ft 514 kts 156°
2026-05-06 12:32 45.00705 0.13507 34911 ft 514 kts 156°
2026-05-06 12:32 44.94252 0.17864 34908 ft 514 kts 156°
2026-05-06 12:33 44.87784 0.22220 34907 ft 515 kts 156°
2026-05-06 12:33 44.81304 0.26574 34912 ft 515 kts 156°
2026-05-06 12:34 44.74864 0.30890 34911 ft 515 kts 156°
2026-05-06 12:34 44.68379 0.35226 34912 ft 515 kts 156°
2026-05-06 12:35 44.61927 0.39529 34915 ft 515 kts 156°
2026-05-06 12:35 44.55436 0.43848 34910 ft 515 kts 156°
2026-05-06 12:36 44.48965 0.48144 34918 ft 514 kts 156°
2026-05-06 12:36 44.42572 0.52375 34922 ft 515 kts 157°
2026-05-06 12:37 44.36073 0.56635 34921 ft 514 kts 157°
2026-05-06 12:37 44.29621 0.60845 34939 ft 514 kts 157°
2026-05-06 12:38 44.23157 0.65057 34938 ft 515 kts 157°
2026-05-06 12:38 44.16681 0.69261 34935 ft 514 kts 158°
2026-05-06 12:39 44.10199 0.73457 34940 ft 514 kts 158°
2026-05-06 12:39 44.03703 0.77669 34938 ft 513 kts 158°
2026-05-06 12:40 43.97269 0.81836 34932 ft 511 kts 158°
2026-05-06 12:40 43.90866 0.86023 34937 ft 509 kts 156°
2026-05-06 12:41 43.84882 0.90501 34937 ft 511 kts 154°
2026-05-06 12:41 43.78672 0.95335 34947 ft 511 kts 154°
2026-05-06 12:42 43.72526 1.00078 34954 ft 511 kts 155°
2026-05-06 12:42 43.66307 1.04815 34957 ft 512 kts 155°
2026-05-06 12:43 43.60054 1.09551 34934 ft 512 kts 156°
2026-05-06 12:43 43.53851 1.14256 34951 ft 511 kts 155°
2026-05-06 12:44 43.47616 1.18965 34953 ft 511 kts 156°
2026-05-06 12:44 43.41372 1.23662 34927 ft 511 kts 156°
2026-05-06 12:45 43.35136 1.28340 34956 ft 510 kts 156°
2026-05-06 12:46 43.25773 1.35345 34955 ft 511 kts 156°
2026-05-06 12:46 43.19569 1.39975 34953 ft 511 kts 156°
2026-05-06 12:47 43.13318 1.44627 34948 ft 511 kts 156°
2026-05-06 12:47 43.07061 1.49275 34961 ft 511 kts 156°
2026-05-06 12:48 43.00813 1.53904 34915 ft 510 kts 157°
2026-05-06 12:48 42.94648 1.58465 34940 ft 506 kts 157°
2026-05-06 12:49 42.88505 1.62995 34943 ft 503 kts 157°
2026-05-06 12:49 42.82346 1.67525 34920 ft 501 kts 157°
2026-05-06 12:50 42.76221 1.72022 34939 ft 502 kts 157°
2026-05-06 12:50 42.70056 1.76535 34946 ft 504 kts 157°
2026-05-06 12:51 42.63898 1.81037 34943 ft 506 kts 157°
2026-05-06 12:51 42.58134 1.85240 34922 ft 507 kts 158°
2026-05-06 12:52 42.51929 1.89758 34866 ft 502 kts 158°
2026-05-06 12:52 42.48862 1.91992 34327 ft 493 kts 158°
2026-05-06 12:52 42.45875 1.94167 33291 ft 483 kts 159°
2026-05-06 12:52 42.42938 1.96296 32197 ft 472 kts 159°
2026-05-06 12:53 42.40104 1.98348 31154 ft 461 kts 159°
2026-05-06 12:53 42.37368 2.00327 30157 ft 452 kts 159°
2026-05-06 12:53 42.34628 2.02433 29013 ft 454 kts 156°
2026-05-06 12:53 42.31935 2.04749 27925 ft 463 kts 154°
2026-05-06 12:54 42.29231 2.07174 26840 ft 464 kts 153°
2026-05-06 12:54 42.26563 2.09582 25814 ft 457 kts 153°
2026-05-06 12:54 42.23964 2.11899 24817 ft 449 kts 153°
2026-05-06 12:54 42.21361 2.14185 23853 ft 442 kts 153°
2026-05-06 12:55 42.18792 2.16419 22810 ft 435 kts 153°
2026-05-06 12:55 42.16263 2.18607 21677 ft 429 kts 153°
2026-05-06 12:55 42.13769 2.20767 20597 ft 424 kts 152°
2026-05-06 12:55 42.11304 2.22901 19596 ft 418 kts 151°
2026-05-06 12:56 42.08868 2.25006 18604 ft 413 kts 150°
2026-05-06 12:56 42.06463 2.27081 17558 ft 409 kts 149°
2026-05-06 12:56 42.04083 2.29135 16485 ft 404 kts 150°
2026-05-06 12:56 42.01753 2.31144 15441 ft 397 kts 150°
2026-05-06 12:57 41.99453 2.33126 14442 ft 390 kts 149°
2026-05-06 12:57 41.97190 2.35075 13430 ft 383 kts 149°
2026-05-06 12:57 41.94945 2.37003 12580 ft 383 kts 149°
2026-05-06 12:57 41.92700 2.38930 11820 ft 384 kts 149°
2026-05-06 12:58 41.90444 2.40866 11134 ft 385 kts 149°
2026-05-06 12:58 41.88190 2.42798 10417 ft 385 kts 149°
2026-05-06 12:58 41.85929 2.44737 9724 ft 386 kts 149°
2026-05-06 12:58 41.83689 2.46659 8962 ft 374 kts 149°
2026-05-06 12:59 41.81505 2.48529 8497 ft 368 kts 149°
2026-05-06 12:59 41.79367 2.50355 8052 ft 360 kts 150°
2026-05-06 12:59 41.77303 2.52110 7685 ft 352 kts 149°
2026-05-06 12:59 41.75253 2.53869 7271 ft 348 kts 150°
2026-05-06 13:00 41.73219 2.55614 6871 ft 347 kts 150°
2026-05-06 13:00 41.71180 2.57355 6490 ft 349 kts 150°
2026-05-06 13:00 41.69135 2.59097 6148 ft 347 kts 150°
2026-05-06 13:00 41.67104 2.60733 5936 ft 330 kts 158°
2026-05-06 13:01 41.64924 2.61405 5641 ft 318 kts 182°
2026-05-06 13:01 41.62796 2.60920 5338 ft 304 kts 201°
2026-05-06 13:01 41.60914 2.59753 5111 ft 293 kts 216°
2026-05-06 13:01 41.59357 2.58067 4925 ft 283 kts 224°
2026-05-06 13:02 41.57953 2.56365 4667 ft 259 kts 225°
2026-05-06 13:02 41.56682 2.54809 4434 ft 236 kts 225°
2026-05-06 13:02 41.55543 2.53414 4234 ft 215 kts 224°
2026-05-06 13:02 41.54482 2.52121 4030 ft 198 kts 224°
2026-05-06 13:03 41.53461 2.50878 3877 ft 203 kts 224°
2026-05-06 13:03 41.52400 2.49593 3767 ft 206 kts 224°
2026-05-06 13:03 41.51367 2.48347 3696 ft 193 kts 224°
2026-05-06 13:03 41.50401 2.47188 3579 ft 183 kts 225°
2026-05-06 13:04 41.49444 2.46036 3425 ft 185 kts 224°
2026-05-06 13:04 41.48494 2.44897 3284 ft 183 kts 224°
2026-05-06 13:04 41.47551 2.43767 3132 ft 181 kts 224°
2026-05-06 13:04 41.46618 2.42650 2969 ft 181 kts 224°
2026-05-06 13:05 41.45674 2.41519 2920 ft 185 kts 224°
2026-05-06 13:05 41.44733 2.40396 2854 ft 183 kts 224°
2026-05-06 13:05 41.43782 2.39260 2779 ft 183 kts 223°
2026-05-06 13:05 41.42811 2.38102 2686 ft 183 kts 223°
2026-05-06 13:06 41.41874 2.36985 2611 ft 183 kts 223°
2026-05-06 13:06 41.40923 2.35854 2547 ft 182 kts 223°
2026-05-06 13:06 41.39964 2.34712 2473 ft 186 kts 222°
2026-05-06 13:06 41.39000 2.33566 2400 ft 185 kts 223°
2026-05-06 13:07 41.38190 2.32285 2305 ft 182 kts 239°
2026-05-06 13:07 41.37589 2.30796 2313 ft 183 kts 243°
2026-05-06 13:07 41.37042 2.29274 2290 ft 185 kts 245°
2026-05-06 13:07 41.36498 2.27700 2298 ft 187 kts 243°
2026-05-06 13:08 41.35960 2.26128 2295 ft 184 kts 245°
2026-05-06 13:08 41.35454 2.24644 2277 ft 167 kts 243°
2026-05-06 13:08 41.34985 2.23271 2115 ft 160 kts 244°
2026-05-06 13:08 41.34534 2.21952 1916 ft 152 kts 244°
2026-05-06 13:09 41.34114 2.20721 1726 ft 144 kts 242°
2026-05-06 13:09 41.33705 2.19529 1509 ft 144 kts 243°
2026-05-06 13:09 41.33297 2.18319 1379 ft 141 kts 241°
2026-05-06 13:09 41.32880 2.17115 1103 ft 145 kts 238°
2026-05-06 13:10 41.32445 2.15906 955 ft 145 kts 243°
2026-05-06 13:10 41.32024 2.14700 828 ft 146 kts 243°
2026-05-06 13:10 41.31613 2.13433 596 ft 147 kts 243°
2026-05-06 13:10 41.31175 2.12198 387 ft 149 kts 242°
2026-05-06 13:11 41.30772 2.10952 154 ft 145 kts 242°
2026-05-06 13:11 41.30356 2.09737 19 ft 141 kts 242°
2026-05-06 13:11 41.29988 2.08671 12 ft 104 kts 245°
2026-05-06 13:11 41.29761 2.08014 9 ft 52 kts 245°
2026-05-06 13:12 41.29636 2.07648 10 ft 42 kts 245°
2026-05-06 13:12 41.29545 2.07383 10 ft 29 kts 245°
2026-05-06 13:12 41.29466 2.07201 8 ft 17 kts 208°
2026-05-06 13:12 41.29385 2.07221 8 ft 10 kts 155°
2026-05-06 13:13 41.29339 2.07284 8 ft 7 kts 94°
2026-05-06 13:13 41.29314 2.07354 8 ft 11 kts 147°
2026-05-06 13:13 41.29253 2.07407 8 ft 11 kts 117°
2026-05-06 13:13 41.29274 2.07517 8 ft 13 kts 66°
2026-05-06 13:14 41.29282 2.07599 8 ft 9 kts 115°
2026-05-06 13:14 41.29242 2.07625 8 ft 11 kts 165°
2026-05-06 13:14 41.29142 2.07576 7 ft 9 kts 216°
2026-05-06 13:14 41.29120 2.07553 7 ft 2 kts 218°
2026-05-06 13:15 41.29114 2.07548 7 ft 0 kts 217°